DW8818 Weather Reports


Display with metric or nautical units.
time (UTC)temp
F
wind
direction
speed
MPH
gust
MPH
rain 1hr
in
rain 24hr
in
rain mn
in
humidity
%
barometer
mb
20200330075017 48 20 1.0 7.0 0.00 0.36 0.00 83 1009.7
20200330074903 48 338 1.0 7.0 0.00 0.36 0.00 83 1009.7
20200330074809 48 25 2.0 7.0 0.00 0.36 0.00 83 1009.7
20200330074722 48 319 1.0 7.0 0.00 0.36 0.00 83 1009.7
20200330074612 48 49 0.0 5.0 0.00 0.36 0.00 83 1009.8
20200330074518 48 50 1.0 5.0 0.00 0.36 0.00 83 1009.7
20200330074404 48 343 1.0 5.0 0.00 0.36 0.00 84 1009.8
20200330074310 48 34 0.0 3.0 0.00 0.36 0.00 84 1009.8
20200330074223 48 43 0.0 3.0 0.00 0.36 0.00 84 1009.8
20200330074102 48 44 0.0 4.0 0.00 0.36 0.00 84 1009.8
20200330074019 48 44 0.0 4.0 0.00 0.36 0.00 84 1009.9
20200330073905 48 56 0.0 4.0 0.00 0.36 0.00 84 1009.9
20200330073811 48 56 0.0 5.0 0.00 0.36 0.00 84 1010.0
20200330073716 48 26 0.0 9.0 0.00 0.36 0.00 84 1010.0
20200330073603 48 328 0.0 9.0 0.00 0.36 0.00 84 1009.9
20200330073520 48 68 1.0 9.0 0.00 0.36 0.00 84 1009.9
20200330073406 48 33 2.0 9.0 0.00 0.36 0.00 84 1010.0
20200330073312 48 238 0.0 9.0 0.00 0.36 0.00 84 1010.0
20200330073218 48 40 0.0 9.0 0.00 0.36 0.00 84 1010.0
20200330073104 48 53 2.0 9.0 0.00 0.36 0.00 84 1010.0
20200330073017 48 43 2.0 9.0 0.00 0.36 0.00 84 1010.0
20200330072907 48 318 1.0 4.0 0.00 0.36 0.00 84 1010.1
20200330072813 48 352 0.0 4.0 0.00 0.36 0.00 84 1010.1
20200330072719 48 61 0.0 4.0 0.00 0.36 0.00 84 1010.1
20200330072605 48 23 0.0 4.0 0.00 0.36 0.00 84 1010.1
20200330072510 48 37 0.0 4.0 0.00 0.36 0.00 84 1010.2
20200330072428 48 25 0.0 4.0 0.00 0.36 0.00 84 1010.2
20200330072314 48 18 1.0 4.0 0.00 0.36 0.00 84 1010.1
20200330072217 48 318 0.0 4.0 0.00 0.36 0.00 84 1010.2
20200330072102 48 342 1.0 7.0 0.00 0.36 0.00 84 1010.2
20200330072009 48 63 0.0 7.0 0.00 0.36 0.00 84 1010.1
20200330071922 48 356 0.0 7.0 0.00 0.36 0.00 84 1010.1
20200330071812 48 57 0.0 7.0 0.00 0.36 0.00 84 1010.1
20200330071718 48 11 0.0 7.0 0.00 0.36 0.00 84 1010.1
20200330071604 48 55 0.0 7.0 0.00 0.36 0.00 84 1010.1
20200330071510 48 56 1.0 7.0 0.00 0.36 0.00 84 1010.2
20200330071423 48 33 2.0 7.0 0.00 0.36 0.00 84 1010.1
20200330071312 48 350 3.0 7.0 0.00 0.36 0.00 84 1010.2
20200330071219 48 23 3.0 8.0 0.00 0.36 0.00 84 1010.3
20200330071105 48 321 2.0 7.0 0.00 0.36 0.00 84 1010.2
20200330071011 48 60 2.0 7.0 0.00 0.36 0.00 84 1010.2
20200330070917 48 30 3.0 8.0 0.00 0.36 0.00 85 1010.2
20200330070815 48 310 2.0 7.0 0.00 0.36 0.00 85 1010.3
20200330070720 48 9 1.0 7.0 0.00 0.36 0.00 85 1010.3
20200330070605 48 34 1.0 7.0 0.00 0.36 0.00 85 1010.3
20200330070511 48 49 2.0 7.0 0.00 0.36 0.00 85 1010.4
20200330070419 48 321 2.0 7.0 0.00 0.36 0.00 85 1010.4
20200330070304 48 51 0.0 6.0 0.00 0.36 0.00 85 1010.4
20200330070221 48 19 0.0 6.0 0.00 0.36 0.00 85 1010.4
20200330070107 48 43 1.0 7.0 0.00 0.36 0.36 85 1010.5
20200330070013 48 43 2.0 7.0 0.00 0.36 0.36 85 1010.5
20200330065919 48 319 3.0 7.0 0.00 0.36 0.36 85 1010.4
20200330065805 48 326 1.0 7.0 0.00 0.36 0.36 85 1010.5
20200330065722 48 11 0.0 7.0 0.00 0.36 0.36 85 1010.5
20200330065608 48 39 0.0 7.0 0.00 0.36 0.36 85 1010.5
20200330065514 48 57 0.0 7.0 0.00 0.36 0.36 85 1010.5
20200330065420 48 58 2.0 7.0 0.00 0.36 0.36 85 1010.5
20200330065305 48 334 2.0 7.0 0.00 0.36 0.36 85 1010.6
20200330065212 48 333 2.0 7.0 0.00 0.36 0.36 85 1010.6
20200330065102 48 349 2.0 9.0 0.00 0.36 0.36 85 1010.6
20200330065015 48 18 1.0 9.0 0.00 0.36 0.36 85 1010.6
20200330064920 48 358 0.0 9.0 0.00 0.36 0.36 85 1010.6
20200330064807 48 22 1.0 9.0 0.00 0.36 0.36 85 1010.6
20200330064712 48 86 2.0 9.0 0.00 0.36 0.36 85 1010.6
20200330064603 48 347 3.0 9.0 0.00 0.36 0.36 85 1010.7
20200330064516 48 336 3.0 9.0 0.00 0.36 0.36 85 1010.7
20200330064402 48 45 2.0 9.0 0.00 0.36 0.36 85 1010.7
20200330064308 48 328 2.0 9.0 0.00 0.36 0.36 85 1010.8
20200330064214 48 57 2.0 9.0 0.00 0.36 0.36 85 1010.7
20200330064104 48 302 0.0 9.0 0.00 0.36 0.36 85 1010.8
20200330064017 48 17 2.0 9.0 0.00 0.36 0.36 85 1010.8
20200330063922 48 20 2.0 9.0 0.00 0.36 0.36 85 1010.9
20200330063808 48 27 0.0 9.0 0.00 0.36 0.36 85 1010.8
20200330063715 48 75 3.0 9.0 0.00 0.36 0.36 85 1010.9
20200330063621 48 33 3.0 11.0 0.00 0.36 0.36 85 1010.9
20200330063510 48 328 2.0 11.0 0.00 0.36 0.36 85 1011.0
20200330063424 48 18 1.0 11.0 0.00 0.36 0.36 85 1011.0
20200330063309 48 340 1.0 11.0 0.00 0.36 0.36 85 1011.0
20200330063215 48 336 2.0 11.0 0.00 0.36 0.36 85 1011.1
20200330063102 48 314 2.0 11.0 0.00 0.36 0.36 85 1011.1
20200330063012 48 37 1.0 11.0 0.00 0.36 0.36 85 1011.2
20200330062925 48 318 2.0 11.0 0.00 0.36 0.36 85 1011.2
20200330062811 48 119 3.0 11.0 0.00 0.36 0.36 85 1011.2
20200330062717 48 97 1.0 8.0 0.00 0.36 0.36 85 1011.2
20200330062603 48 334 2.0 8.0 0.00 0.36 0.36 85 1011.3
20200330062509 48 75 2.0 10.0 0.00 0.36 0.36 85 1011.4
20200330062426 48 328 2.0 10.0 0.00 0.36 0.36 85 1011.3
20200330062313 48 328 1.0 10.0 0.00 0.36 0.36 85 1011.4
20200330062218 48 11 1.0 11.0 0.00 0.36 0.36 85 1011.5
20200330062105 48 67 1.0 11.0 0.00 0.36 0.36 86 1011.4
20200330062010 48 33 2.0 12.0 0.00 0.36 0.36 86 1011.6
20200330061920 48 338 4.0 12.0 0.00 0.36 0.36 86 1011.6
20200330061806 48 46 5.0 12.0 0.00 0.36 0.36 86 1011.5
20200330061718 48 328 4.0 12.0 0.00 0.36 0.36 86 1011.5
20200330061604 48 360 5.0 12.0 0.00 0.36 0.36 86 1011.6
20200330061512 48 39 5.0 12.0 0.00 0.36 0.36 86 1011.6
20200330061417 48 323 4.0 12.0 0.00 0.36 0.36 86 1011.6
20200330061307 48 43 4.0 12.0 0.00 0.36 0.36 87 1011.7
20200330061220 48 322 3.0 12.0 0.00 0.36 0.36 87 1011.6
20200330061106 48 67 1.0 11.0 0.00 0.36 0.36 87 1011.7
20200330061012 48 6 1.0 11.0 0.00 0.36 0.36 87 1011.7
20200330060918 48 39 3.0 11.0 0.00 0.36 0.36 87 1011.7
20200330060808 48 18 2.0 11.0 0.00 0.36 0.36 87 1011.7
20200330060722 48 308 0.0 11.0 0.00 0.36 0.36 87 1011.6
20200330060627 48 53 1.0 11.0 0.00 0.36 0.36 87 1011.6
20200330060512 48 36 2.0 11.0 0.00 0.36 0.36 87 1011.6
20200330060419 48 15 4.0 11.0 0.00 0.36 0.36 87 1011.6
20200330060309 48 322 5.0 10.0 0.00 0.36 0.36 88 1011.6
20200330060215 48 312 2.0 12.0 0.00 0.36 0.36 88 1011.6
20200330060128 48 41 2.0 12.0 0.00 0.36 0.36 88 1011.6
20200330060013 48 256 1.0 12.0 0.00 0.36 0.36 88 1011.5
20200330055919 48 57 1.0 12.0 0.00 0.36 0.36 88 1011.6
20200330055805 48 101 2.0 12.0 0.00 0.36 0.36 88 1011.6
20200330055715 48 180 1.0 12.0 0.00 0.36 0.36 89 1011.6
20200330055628 48 13 1.0 12.0 0.00 0.36 0.36 89 1011.6
20200330055514 48 63 3.0 12.0 0.00 0.36 0.36 89 1011.6
20200330055420 48 53 3.0 12.0 0.00 0.36 0.36 89 1011.6
20200330055306 48 25 2.0 9.0 0.00 0.36 0.36 89 1011.6
20200330055216 48 33 3.0 9.0 0.00 0.36 0.36 89 1011.6
20200330055102 48 15 4.0 9.0 0.00 0.36 0.36 89 1011.6
20200330055008 48 255 2.0 9.0 0.00 0.36 0.36 89 1011.6
20200330054920 48 318 2.0 9.0 0.00 0.36 0.36 89 1011.6
20200330054807 48 18 2.0 9.0 0.00 0.36 0.36 89 1011.7
20200330054713 48 309 1.0 9.0 0.00 0.36 0.36 90 1011.7
20200330054603 48 338 0.0 9.0 0.00 0.36 0.36 90 1011.7
20200330054509 48 11 0.0 9.0 0.00 0.36 0.36 90 1011.7
20200330054422 48 49 1.0 9.0 0.00 0.36 0.36 90 1011.7
20200330054308 48 342 3.0 9.0 0.00 0.36 0.36 90 1011.7
20200330054214 48 66 2.0 9.0 0.00 0.36 0.36 90 1011.7
20200330054104 48 20 2.0 7.0 0.00 0.36 0.36 90 1011.7
20200330054010 48 53 2.0 7.0 0.00 0.36 0.36 90 1011.7
20200330053923 48 345 1.0 5.0 0.00 0.36 0.36 90 1011.7
20200330053810 48 53 1.0 5.0 0.00 0.36 0.36 90 1011.7
20200330053715 48 21 1.0 5.0 0.00 0.36 0.36 90 1011.7
20200330053605 48 37 1.0 5.0 0.00 0.36 0.36 90 1011.7
20200330053511 48 283 1.0 5.0 0.00 0.36 0.36 90 1011.7
20200330053417 48 304 1.0 5.0 0.00 0.36 0.36 90 1011.7
20200330053303 48 50 1.0 5.0 0.00 0.36 0.36 90 1011.7
20200330053216 48 332 1.0 3.0 0.00 0.36 0.36 90 1011.7
20200330053102 48 323 0.0 3.0 0.00 0.36 0.36 90 1011.7
20200330053012 48 81 0.0 3.0 0.00 0.36 0.36 90 1011.8
20200330052920 48 45 0.0 3.0 0.00 0.36 0.36 90 1011.8
20200330052804 48 295 0.0 3.0 0.00 0.36 0.36 90 1011.8
20200330052717 48 37 0.0 4.0 0.00 0.36 0.36 90 1011.8
20200330052602 48 39 0.0 4.0 0.01 0.36 0.36 90 1011.8
20200330052513 48 49 0.0 4.0 0.01 0.36 0.36 90 1011.8
20200330052419 48 20 1.0 4.0 0.01 0.36 0.36 90 1011.8
20200330052305 48 360 1.0 4.0 0.01 0.36 0.36 90 1011.8
20200330052211 48 47 0.0 4.0 0.01 0.36 0.36 90 1011.8
20200330052124 48 43 0.0 4.0 0.01 0.36 0.36 90 1011.8
20200330052009 48 33 1.0 4.0 0.01 0.36 0.36 90 1011.8
20200330051920 48 88 1.0 4.0 0.01 0.36 0.36 91 1011.9
20200330051806 48 314 0.0 1.0 0.01 0.36 0.36 91 1011.9
20200330051711 48 63 0.0 3.0 0.01 0.36 0.36 91 1011.9
20200330051625 48 37 0.0 3.0 0.01 0.36 0.36 91 1011.9
20200330051511 48 45 0.0 3.0 0.01 0.36 0.36 91 1011.9
20200330051421 48 44 0.0 3.0 0.01 0.36 0.36 91 1011.9
20200330051306 48 342 0.0 3.0 0.01 0.36 0.36 91 1011.9
20200330051213 48 342 0.0 4.0 0.01 0.36 0.36 91 1011.9
20200330051126 48 316 0.0 4.0 0.01 0.36 0.36 91 1012.0
20200330051012 48 77 1.0 4.0 0.01 0.36 0.36 91 1011.9
20200330050902 48 333 0.0 6.0 0.01 0.36 0.36 91 1012.0
20200330050808 48 53 0.0 6.0 0.01 0.36 0.36 91 1012.0
20200330050714 48 336 0.0 6.0 0.01 0.36 0.36 91 1012.0
20200330050620 48 20 0.0 6.0 0.01 0.36 0.36 91 1012.0
20200330050506 48 11 1.0 6.0 0.01 0.36 0.36 91 1012.0
20200330050419 48 12 1.0 6.0 0.01 0.36 0.36 91 1012.0
20200330050309 48 314 0.0 6.0 0.01 0.36 0.36 91 1012.0
20200330050215 48 58 0.0 6.0 0.01 0.36 0.36 91 1012.0
20200330050120 48 46 1.0 6.0 0.01 0.37 0.36 91 1012.0
20200330050006 48 328 1.0 7.0 0.01 0.37 0.36 91 1011.9
20200330045917 48 358 1.0 7.0 0.01 0.37 0.36 91 1012.0
20200330045807 48 339 1.0 10.0 0.01 0.37 0.36 91 1012.0
20200330045713 48 27 1.0 10.0 0.01 0.37 0.36 91 1011.9
20200330045618 48 46 1.0 10.0 0.01 0.37 0.36 91 1011.9
20200330045505 48 328 2.0 10.0 0.01 0.37 0.36 91 1011.9
20200330045420 48 43 2.0 10.0 0.01 0.37 0.36 91 1012.0
20200330045412 48 286 3.0 10.0 0.01 0.37 0.36 91 1012.0
20200330045252 48 297 2.0 10.0 0.01 0.37 0.36 91 1011.9
20200330045152 48 314 2.0 10.0 0.01 0.37 0.36 91 1012.0
20200330045006 48 20 2.0 9.0 0.01 0.37 0.36 92 1012.0
20200330044911 48 314 2.0 8.0 0.01 0.37 0.36 92 1012.0
20200330044825 48 64 2.0 5.0 0.01 0.37 0.36 92 1012.0
20200330044715 48 20 2.0 5.0 0.01 0.37 0.36 92 1012.0
20200330044620 48 318 0.0 3.0 0.01 0.37 0.36 92 1012.0
20200330044527 48 51 0.0 3.0 0.01 0.37 0.36 92 1012.0
20200330044500 48 34 0.0 3.0 0.01 0.37 0.36 92 1012.0
20200330044321 48 25 0.0 3.0 0.01 0.37 0.36 92 1012.1
20200330044207 48 37 0.0 3.0 0.01 0.37 0.36 92 1012.0
20200330044119 48 39 0.0 3.0 0.01 0.37 0.36 92 1012.0
20200330044010 48 340 0.0 3.0 0.01 0.37 0.36 92 1012.0
20200330043916 48 53 0.0 2.0 0.01 0.37 0.36 92 1012.0
20200330043802 48 58 0.0 2.0 0.01 0.37 0.36 92 1012.1
20200330043708 48 47 0.0 2.0 0.01 0.37 0.36 92 1012.0
20200330043621 48 68 0.0 2.0 0.01 0.37 0.36 92 1012.0
20200330043511 48 342 0.0 2.0 0.01 0.37 0.36 92 1012.0
20200330043417 48 315 0.0 2.0 0.02 0.37 0.36 92 1012.0
20200330043303 48 23 0.0 2.0 0.02 0.37 0.36 91 1012.0
20200330043209 48 23 0.0 2.0 0.02 0.37 0.36 91 1012.0
20200330043115 48 44 0.0 1.0 0.02 0.37 0.36 91 1012.0
20200330043006 48 51 0.0 1.0 0.02 0.37 0.36 91 1012.0
20200330042917 48 51 0.0 1.0 0.02 0.37 0.36 91 1012.0
20200330042804 48 40 0.0 0.0 0.02 0.37 0.36 91 1012.0
20200330042709 48 342 0.0 5.0 0.02 0.37 0.36 91 1012.0
20200330042616 48 49 0.0 6.0 0.01 0.36 0.35 91 1012.0
20200330042502 48 49 0.0 6.0 0.01 0.36 0.35 91 1012.0
20200330042418 48 49 0.0 6.0 0.01 0.36 0.35 91 1012.0
20200330042305 48 49 0.0 6.0 0.01 0.36 0.35 91 1012.0
20200330042210 48 49 0.0 6.0 0.01 0.36 0.35 91 1012.0
20200330042117 48 48 0.0 6.0 0.01 0.36 0.35 91 1012.0
20200330042003 48 33 1.0 6.0 0.02 0.36 0.35 91 1012.0
20200330041920 48 33 1.0 6.0 0.02 0.36 0.35 91 1012.0
20200330041826 48 26 1.0 6.0 0.02 0.36 0.35 91 1012.0
20200330041712 48 318 0.0 0.0 0.02 0.36 0.35 91 1012.0
20200330041618 48 77 0.0 0.0 0.02 0.36 0.35 91 1012.0
20200330041504 48 77 0.0 0.0 0.02 0.36 0.35 91 1012.0
20200330041409 48 77 0.0 0.0 0.02 0.36 0.35 91 1012.0
20200330041327 48 78 0.0 0.0 0.02 0.36 0.35 91 1012.0
20200330041212 48 51 0.0 0.0 0.03 0.36 0.35 91 1012.0
20200330041119 48 51 0.0 0.0 0.03 0.36 0.35 91 1012.0
20200330041005 48 51 0.0 2.0 0.03 0.36 0.35 91 1012.0
20200330040910 48 51 0.0 2.0 0.04 0.36 0.35 91 1012.0
20200330040828 48 51 0.0 2.0 0.04 0.36 0.35 91 1012.0
20200330040714 48 51 0.0 3.0 0.05 0.36 0.35 91 1012.0
20200330040619 48 57 0.0 3.0 0.05 0.36 0.35 90 1012.0
20200330040505 48 58 0.0 3.0 0.06 0.36 0.35 90 1012.0
20200330040412 48 58 0.0 5.0 0.06 0.36 0.35 90 1012.0
20200330040309 48 70 0.0 5.0 0.07 0.36 0.35 90 1012.1
20200330040223 48 53 0.0 5.0 0.07 0.36 0.35 90 1012.1
20200330040128 48 56 0.0 5.0 0.07 0.36 0.35 90 1012.0
20200330040013 48 61 0.0 5.0 0.07 0.36 0.35 90 1012.0
20200330035918 48 342 0.0 5.0 0.07 0.36 0.35 90 1012.0
20200330035805 48 68 0.0 5.0 0.07 0.36 0.35 90 1012.0
20200330035715 48 39 1.0 5.0 0.07 0.36 0.35 90 1012.0
20200330035628 48 61 1.0 5.0 0.07 0.36 0.35 90 1012.0
20200330035514 48 25 1.0 3.0 0.07 0.36 0.35 90 1012.0
20200330035417 48 43 0.0 3.0 0.07 0.36 0.35 90 1012.0
20200330035303 49 39 0.0 3.0 0.07 0.36 0.35 90 1011.9
20200330035212 49 77 0.0 3.0 0.07 0.36 0.35 90 1012.0
20200330035126 49 15 0.0 3.0 0.07 0.36 0.35 90 1012.0
20200330035012 49 13 0.0 3.0 0.07 0.36 0.35 90 1012.0
20200330034918 49 27 0.0 3.0 0.07 0.36 0.35 90 1012.0
20200330034804 49 71 0.0 3.0 0.07 0.36 0.35 89 1012.0
20200330034710 49 71 0.0 4.0 0.07 0.36 0.35 89 1012.0
20200330034627 49 70 0.0 4.0 0.07 0.36 0.35 89 1012.0
20200330034505 49 86 0.0 4.0 0.07 0.36 0.35 89 1012.0
20200330034417 49 82 0.0 4.0 0.07 0.36 0.35 89 1012.0
20200330034303 49 103 0.0 4.0 0.07 0.36 0.35 89 1012.0
20200330034210 49 61 0.0 4.0 0.07 0.36 0.35 89 1012.0
20200330034120 49 95 0.0 4.0 0.07 0.36 0.35 89 1011.9
20200330034006 49 77 1.0 4.0 0.07 0.36 0.35 89 1012.0
20200330033919 49 83 1.0 4.0 0.07 0.36 0.35 89 1011.9
20200330033805 49 25 0.0 4.0 0.07 0.36 0.35 89 1011.9
20200330033710 49 100 0.0 4.0 0.07 0.36 0.35 89 1011.9
20200330033617 49 68 1.0 4.0 0.07 0.36 0.35 89 1012.0
20200330033507 49 83 1.0 4.0 0.07 0.36 0.35 89 1011.9
20200330033419 49 41 0.0 4.0 0.06 0.35 0.34 89 1011.9
20200330033326 49 57 0.0 4.0 0.06 0.35 0.34 89 1011.9
20200330033212 49 57 0.0 4.0 0.06 0.35 0.34 89 1011.9
20200330033117 49 43 0.0 4.0 0.06 0.35 0.34 89 1011.9
20200330033008 49 33 0.0 4.0 0.06 0.35 0.34 89 1011.9
20200330032914 49 34 0.0 4.0 0.06 0.35 0.34 89 1011.9
20200330032827 49 8 0.0 4.0 0.06 0.35 0.34 89 1011.9
20200330032713 49 8 1.0 5.0 0.06 0.35 0.34 88 1011.9
20200330032619 49 340 1.0 5.0 0.06 0.35 0.34 88 1011.9
20200330032509 49 360 0.0 5.0 0.06 0.35 0.34 88 1011.9
20200330032414 49 43 0.0 5.0 0.06 0.35 0.34 88 1012.0
20200330032328 49 41 0.0 5.0 0.06 0.35 0.34 88 1012.0
20200330032213 49 30 1.0 5.0 0.06 0.35 0.34 88 1012.0
20200330032120 49 69 1.0 5.0 0.06 0.35 0.34 88 1012.0
20200330032006 50 41 2.0 5.0 0.05 0.34 0.33 87 1012.0
20200330031916 50 25 2.0 5.0 0.05 0.34 0.33 87 1012.1
20200330031802 50 243 0.0 5.0 0.05 0.34 0.33 87 1012.0
20200330031716 50 243 0.0 5.0 0.05 0.34 0.33 87 1012.0
20200330031621 50 243 0.0 5.0 0.05 0.34 0.33 87 1012.0
20200330031507 50 53 1.0 5.0 0.05 0.34 0.33 87 1012.0
20200330031417 50 323 2.0 5.0 0.05 0.34 0.33 86 1012.0
20200330031303 50 78 2.0 5.0 0.04 0.33 0.32 86 1012.0
20200330031209 50 58 2.0 6.0 0.04 0.33 0.32 86 1012.0
20200330031122 50 95 2.0 6.0 0.04 0.33 0.32 86 1012.0
20200330031008 50 55 1.0 6.0 0.04 0.33 0.32 86 1012.0
20200330030914 51 300 0.0 6.0 0.03 0.32 0.31 85 1012.0
20200330030803 51 53 0.0 6.0 0.02 0.31 0.30 85 1012.0
20200330030710 51 43 0.0 6.0 0.02 0.31 0.30 84 1012.0
20200330030623 51 20 0.0 6.0 0.02 0.31 0.30 84 1012.0
20200330030509 51 25 1.0 6.0 0.01 0.30 0.29 84 1012.0
20200330030415 51 20 2.0 6.0 0.01 0.30 0.29 83 1012.0
20200330030305 51 59 1.0 5.0 0.00 0.29 0.28 83 1012.0
20200330030211 51 46 0.0 3.0 0.00 0.29 0.28 82 1011.9
20200330030125 51 13 0.0 3.0 0.00 0.29 0.28 82 1011.9
20200330030030 51 27 0.0 3.0 0.00 0.29 0.28 82 1011.9
20200330025914 51 50 0.0 3.0 0.00 0.29 0.28 82 1011.9
20200330025803 51 35 0.0 3.0 0.00 0.29 0.28 82 1011.9
20200330025710 51 49 0.0 4.0 0.00 0.29 0.28 82 1012.0
20200330025616 51 30 0.0 4.0 0.00 0.29 0.28 82 1012.0
20200330025502 51 80 1.0 4.0 0.00 0.29 0.28 82 1011.9
20200330025415 51 44 1.0 4.0 0.00 0.29 0.28 82 1011.9
20200330025321 51 45 0.0 4.0 0.00 0.29 0.28 82 1012.0
20200330025211 51 320 0.0 6.0 0.00 0.29 0.28 82 1011.9
20200330025117 51 11 1.0 6.0 0.00 0.29 0.28 82 1012.0
20200330025003 51 33 1.0 6.0 0.00 0.29 0.28 81 1012.0
20200330024915 51 348 1.0 6.0 0.00 0.29 0.28 82 1012.0
20200330024822 51 39 0.0 6.0 0.00 0.29 0.28 82 1012.0
20200330024711 51 294 0.0 6.0 0.00 0.29 0.28 81 1011.9
20200330024618 51 27 0.0 6.0 0.00 0.29 0.28 81 1011.9
20200330024504 51 65 2.0 6.0 0.00 0.29 0.28 81 1011.9
20200330024410 51 44 2.0 6.0 0.00 0.29 0.28 81 1011.9
20200330024323 51 309 1.0 6.0 0.00 0.29 0.28 81 1011.9
20200330024208 51 15 0.0 6.0 0.00 0.29 0.28 81 1011.9
20200330024118 51 50 1.0 6.0 0.00 0.29 0.28 81 1011.9
20200330024005 51 49 1.0 6.0 0.00 0.29 0.28 81 1011.9
20200330023911 51 53 1.0 6.0 0.00 0.29 0.28 81 1011.9
20200330023824 51 33 0.0 6.0 0.00 0.29 0.28 81 1011.9
20200330023710 51 46 0.0 6.0 0.00 0.29 0.28 81 1011.9
20200330023619 51 49 0.0 6.0 0.00 0.29 0.28 81 1011.8
20200330023505 51 47 1.0 6.0 0.00 0.29 0.28 81 1011.9
20200330023412 51 1 1.0 6.0 0.00 0.29 0.28 81 1011.9
20200330023325 51 322 1.0 4.0 0.00 0.29 0.28 81 1011.9
20200330023212 51 41 1.0 4.0 0.00 0.29 0.28 81 1011.9
20200330023117 51 6 1.0 4.0 0.00 0.29 0.28 81 1011.9
20200330023006 51 33 0.0 4.0 0.00 0.29 0.28 81 1011.9
20200330022912 51 34 0.0 4.0 0.00 0.29 0.28 81 1011.9
20200330022818 51 26 0.0 4.0 0.00 0.29 0.28 81 1011.9
20200330022704 51 30 0.0 4.0 0.00 0.29 0.28 81 1011.9
20200330022617 51 18 1.0 4.0 0.00 0.29 0.28 80 1011.9
20200330022508 52 330 1.0 4.0 0.00 0.29 0.28 80 1011.9
20200330022414 52 323 1.0 4.0 0.00 0.29 0.28 80 1011.9
20200330022319 52 340 1.0 4.0 0.00 0.29 0.28 80 1011.9
20200330022205 52 33 0.0 4.0 0.00 0.29 0.28 80 1011.8
20200330022118 52 22 0.0 5.0 0.00 0.29 0.28 80 1011.9
20200330022009 52 37 1.0 5.0 0.00 0.29 0.28 80 1011.8
20200330021914 52 31 1.0 5.0 0.00 0.29 0.28 80 1011.8
20200330021820 52 348 1.0 5.0 0.00 0.29 0.28 80 1011.9
20200330021706 52 358 0.0 5.0 0.00 0.29 0.28 80 1011.9
20200330021613 52 73 0.0 7.0 0.00 0.29 0.28 80 1011.9
20200330021526 52 58 0.0 7.0 0.00 0.29 0.28 79 1011.9
20200330021416 52 58 1.0 7.0 0.00 0.29 0.28 79 1011.9
20200330021301 52 20 2.0 7.0 0.00 0.29 0.28 79 1011.9
20200330021207 52 328 1.0 7.0 0.00 0.29 0.28 79 1011.9
20200330021113 52 58 0.0 7.0 0.00 0.29 0.28 78 1012.0
20200330021027 52 81 1.0 7.0 0.00 0.29 0.28 78 1012.0
20200330020916 52 27 2.0 7.0 0.00 0.29 0.28 78 1012.0
20200330020803 52 323 0.0 5.0 0.00 0.29 0.28 77 1012.0
20200330020708 52 74 0.0 3.0 0.00 0.29 0.28 77 1012.0
20200330020614 52 30 0.0 3.0 0.00 0.29 0.28 77 1012.0
20200330020528 52 18 0.0 3.0 0.00 0.29 0.28 76 1012.0
20200330020413 53 33 0.0 3.0 0.00 0.29 0.28 76 1012.0
20200330020304 53 57 0.0 3.0 0.00 0.29 0.28 75 1012.0
20200330020209 53 57 0.0 3.0 0.00 0.29 0.28 75 1012.0
20200330020128 53 61 0.0 3.0 0.00 0.29 0.28 75 1012.0
20200330020001 53 37 0.0 3.0 0.00 0.29 0.28 74 1012.0
20200330015908 53 49 1.0 3.0 0.00 0.29 0.28 74 1012.0
20200330015825 53 49 1.0 3.0 0.00 0.29 0.28 74 1012.0
20200330015710 53 339 0.0 5.0 0.00 0.29 0.28 73 1012.0
20200330015617 53 44 0.0 5.0 0.00 0.29 0.28 73 1012.1
20200330015502 53 44 0.0 5.0 0.00 0.29 0.28 73 1012.0
20200330015408 53 43 0.0 5.0 0.00 0.29 0.28 73 1012.0
20200330015321 53 49 0.0 5.0 0.00 0.29 0.28 73 1012.0
20200330015211 53 49 0.0 5.0 0.00 0.29 0.28 72 1012.0
20200330015117 53 49 1.0 5.0 0.00 0.29 0.28 72 1012.0
20200330015003 53 43 1.0 5.0 0.00 0.29 0.28 72 1012.0
20200330014909 53 49 1.0 6.0 0.00 0.29 0.28 72 1012.0
20200330014823 53 13 1.0 4.0 0.00 0.29 0.28 72 1012.0
20200330014712 53 23 1.0 4.0 0.00 0.29 0.28 72 1012.0
20200330014619 53 49 0.0 4.0 0.00 0.29 0.28 72 1012.0
20200330014504 53 45 0.0 4.0 0.00 0.29 0.28 72 1012.0
20200330014411 53 77 1.0 4.0 0.00 0.29 0.28 71 1012.0
20200330014316 53 70 1.0 6.0 0.00 0.29 0.28 72 1012.0
20200330014206 53 49 1.0 9.0 0.00 0.29 0.28 71 1012.0
20200330014119 53 30 2.0 9.0 0.00 0.29 0.28 71 1012.0
20200330014006 53 63 1.0 9.0 0.00 0.29 0.28 71 1012.0
20200330013911 53 79 1.0 9.0 0.00 0.29 0.28 71 1012.1
20200330013818 53 41 1.0 9.0 0.00 0.29 0.28 71 1012.1
20200330013703 53 16 1.0 9.0 0.00 0.29 0.28 71 1012.1
20200330013620 53 69 1.0 9.0 0.00 0.29 0.28 71 1012.0
20200330013506 53 69 3.0 9.0 0.00 0.29 0.28 70 1012.1
20200330013412 53 108 3.0 9.0 0.00 0.29 0.28 71 1012.2
20200330013319 53 58 2.0 6.0 0.00 0.29 0.28 70 1012.2
20200330013205 53 41 2.0 6.0 0.00 0.29 0.28 70 1012.1
20200330013122 53 49 2.0 6.0 0.00 0.29 0.28 70 1012.1
20200330013028 53 92 2.0 6.0 0.00 0.29 0.28 70 1012.1
20200330012914 53 13 0.0 6.0 0.00 0.29 0.28 70 1012.1
20200330012820 53 83 0.0 6.0 0.00 0.29 0.28 70 1012.2
20200330012705 53 75 2.0 6.0 0.00 0.29 0.28 70 1012.2
20200330012612 53 103 2.0 6.0 0.00 0.29 0.28 69 1012.1
20200330012502 54 44 3.0 5.0 0.00 0.29 0.28 69 1012.1
20200330012414 54 45 2.0 8.0 0.00 0.29 0.28 69 1012.2
20200330012321 54 44 1.0 8.0 0.00 0.29 0.28 69 1012.2
20200330012206 54 75 1.0 8.0 0.00 0.29 0.28 70 1012.2
20200330012112 54 51 1.0 8.0 0.00 0.29 0.28 69 1012.1
20200330012002 54 69 2.0 8.0 0.00 0.29 0.28 69 1012.1
20200330011916 54 57 1.0 10.0 0.00 0.29 0.28 69 1012.2
20200330011802 54 67 2.0 10.0 0.00 0.29 0.28 69 1012.2
20200330011707 54 71 3.0 10.0 0.00 0.29 0.28 69 1012.2
20200330011613 54 23 4.0 10.0 0.00 0.29 0.28 69 1012.2
20200330011503 54 30 3.0 10.0 0.00 0.29 0.28 69 1012.2
20200330011409 54 20 2.0 10.0 0.00 0.29 0.28 69 1012.2
20200330011322 54 103 1.0 10.0 0.00 0.29 0.28 69 1012.2
20200330011209 54 86 2.0 10.0 0.00 0.29 0.28 69 1012.2
20200330011114 54 58 3.0 10.0 0.00 0.29 0.28 69 1012.2
20200330011021 54 101 5.0 11.0 0.00 0.29 0.28 69 1012.3
20200330010911 54 246 3.0 8.0 0.00 0.29 0.28 70 1012.2
20200330010824 54 49 1.0 8.0 0.00 0.29 0.28 71 1012.3
20200330010709 54 23 0.0 8.0 0.00 0.29 0.28 71 1012.3
20200330010615 54 58 1.0 8.0 0.00 0.29 0.28 71 1012.3
20200330010502 54 78 1.0 8.0 0.00 0.29 0.28 71 1012.2
20200330010411 54 43 1.0 8.0 0.00 0.29 0.28 72 1012.2
20200330010325 54 101 2.0 8.0 0.00 0.29 0.28 72 1012.2
20200330010211 54 45 3.0 8.0 0.00 0.29 0.28 71 1012.2
20200330010117 54 91 2.0 9.0 0.00 0.30 0.28 73 1012.3
20200330010002 54 42 1.0 5.0 0.00 0.30 0.28 74 1012.3
20200330005909 54 49 0.0 4.0 0.00 0.30 0.28 74 1012.3
20200330005827 54 47 0.0 4.0 0.00 0.30 0.28 74 1012.3
20200330005705 54 49 1.0 4.0 0.00 0.30 0.28 74 1012.3
20200330005504 54 355 0.0 1.0 0.00 0.30 0.28 74 1012.3
20200330005411 54 9 0.0 1.0 0.00 0.30 0.28 73 1012.4
20200330005320 54 49 0.0 1.0 0.00 0.30 0.28 73 1012.4
20200330005207 54 58 0.0 3.0 0.00 0.30 0.28 73 1012.3
20200330005119 54 58 0.0 3.0 0.00 0.30 0.28 73 1012.3
20200330005005 54 60 0.0 3.0 0.00 0.30 0.28 73 1012.3
20200330004912 54 82 0.0 3.0 0.00 0.30 0.28 73 1012.3
20200330004801 54 39 0.0 3.0 0.00 0.30 0.28 72 1012.3
20200330004707 54 68 0.0 3.0 0.00 0.30 0.28 72 1012.3
20200330004621 54 69 0.0 3.0 0.00 0.30 0.28 72 1012.3
20200330004527 54 58 0.0 3.0 0.00 0.30 0.28 72 1012.3
20200330004412 54 39 0.0 3.0 0.00 0.30 0.28 71 1012.4
20200330004209 54 63 0.0 3.0 0.00 0.30 0.28 71 1012.3
20200330004116 54 57 0.0 6.0 0.00 0.30 0.28 71 1012.3
20200330004002 54 67 0.0 6.0 0.00 0.30 0.28 70 1012.3
20200330003914 54 355 1.0 6.0 0.00 0.30 0.28 71 1012.3
20200330003820 55 49 1.0 6.0 0.00 0.30 0.28 70 1012.3
20200330003710 55 58 1.0 6.0 0.00 0.30 0.28 71 1012.3
20200330003616 55 79 1.0 6.0 0.00 0.30 0.28 70 1012.3
20200330003503 55 53 1.0 10.0 0.00 0.30 0.28 70 1012.3
20200330003415 55 46 2.0 10.0 0.00 0.30 0.28 69 1012.3
20200330003303 55 46 1.0 10.0 0.00 0.30 0.28 70 1012.3
20200330003207 55 43 1.0 10.0 0.00 0.30 0.28 69 1012.2
20200330003118 55 69 1.0 10.0 0.00 0.30 0.28 69 1012.3
20200330003004 55 49 2.0 10.0 0.00 0.30 0.28 69 1012.3
20200330002909 55 49 2.0 10.0 0.00 0.30 0.28 69 1012.3
20200330002822 55 69 2.0 10.0 0.00 0.30 0.28 69 1012.3
20200330002708 55 54 1.0 10.0 0.00 0.30 0.28 69 1012.3
20200330002619 55 5 0.0 11.0 0.00 0.30 0.28 69 1012.3
20200330002504 55 58 1.0 6.0 0.00 0.30 0.28 69 1012.3
20200330002411 55 138 2.0 6.0 0.00 0.30 0.28 69 1012.3
20200330002324 55 39 4.0 6.0 0.00 0.30 0.28 69 1012.4
20200330002210 55 65 3.0 7.0 0.00 0.30 0.28 69 1012.4
20200330002115 55 25 2.0 9.0 0.00 0.30 0.28 70 1012.3
20200330002006 55 6 2.0 9.0 0.00 0.30 0.28 70 1012.3
20200330001912 55 50 3.0 9.0 0.00 0.30 0.28 69 1012.3
20200330001825 55 8 2.0 9.0 0.00 0.30 0.28 70 1012.4
20200330001712 55 34 1.0 9.0 0.00 0.30 0.28 71 1012.4
20200330001616 55 27 1.0 9.0 0.00 0.30 0.28 70 1012.4
20200330001506 55 20 2.0 9.0 0.00 0.30 0.28 70 1012.4
20200330001412 55 49 4.0 9.0 0.00 0.30 0.28 69 1012.4
20200330001319 55 77 5.0 9.0 0.00 0.30 0.28 68 1012.4
20200330001204 55 51 2.0 8.0 0.00 0.30 0.28 70 1012.4
20200330001117 55 359 2.0 8.0 0.00 0.30 0.28 70 1012.4
20200330001007 55 340 2.0 9.0 0.00 0.30 0.28 70 1012.4
20200330000914 55 44 0.0 6.0 0.00 0.30 0.28 71 1012.5
20200330000819 55 326 0.0 6.0 0.00 0.30 0.28 70 1012.5
20200330000708 55 51 1.0 11.0 0.00 0.30 0.28 70 1012.5
20200330000622 55 53 2.0 11.0 0.00 0.30 0.28 70 1012.5
20200330000505 56 34 2.0 11.0 0.00 0.30 0.28 69 1012.5
20200330000415 55 87 2.0 11.0 0.00 0.30 0.28 69 1012.5
20200330000321 55 71 1.0 11.0 0.00 0.30 0.28 69 1012.5
20200330000206 55 82 2.0 11.0 0.00 0.30 0.28 68 1012.6
20200330000121 55 70 2.0 11.0 0.00 0.31 0.28 69 1012.6
20200330000026 55 47 4.0 11.0 0.00 0.31 0.28 70 1012.6
20200329235915 55 103 5.0 12.0 0.00 0.31 0.28 69 1012.6
20200329235801 55 68 4.0 9.0 0.00 0.31 0.28 68 1012.6
20200329235707 55 103 3.0 9.0 0.00 0.31 0.28 68 1012.6
20200329235614 56 75 1.0 9.0 0.00 0.31 0.28 69 1012.6
20200329235527 56 71 3.0 9.0 0.00 0.31 0.28 69 1012.6
20200329235412 56 34 3.0 9.0 0.00 0.31 0.28 69 1012.6
20200329235302 56 101 1.0 9.0 0.00 0.31 0.28 69 1012.5
20200329235208 56 107 2.0 9.0 0.00 0.31 0.28 69 1012.6
20200329235114 56 44 5.0 10.0 0.00 0.31 0.28 68 1012.6
20200329235028 56 85 4.0 8.0 0.00 0.31 0.28 69 1012.6
20200329234912 56 27 3.0 7.0 0.00 0.31 0.28 70 1012.6
20200329234802 56 75 3.0 8.0 0.00 0.31 0.28 70 1012.6
20200329234709 56 101 2.0 7.0 0.00 0.31 0.28 69 1012.6
20200329234614 56 78 3.0 7.0 0.00 0.31 0.28 69 1012.6
20200329234529 56 53 3.0 7.0 0.00 0.31 0.28 70 1012.6
20200329234406 56 241 0.0 5.0 0.00 0.31 0.28 71 1012.7
20200329234320 56 41 0.0 5.0 0.00 0.31 0.28 71 1012.6
20200329234209 55 34 0.0 8.0 0.00 0.31 0.28 70 1012.6
20200329234115 55 71 1.0 8.0 0.00 0.31 0.28 70 1012.6
20200329234002 55 73 2.0 8.0 0.00 0.31 0.28 69 1012.6
20200329233907 55 97 1.0 8.0 0.00 0.31 0.28 69 1012.6
20200329233821 55 58 1.0 8.0 0.00 0.31 0.28 70 1012.7
20200329233711 55 75 2.0 8.0 0.00 0.31 0.28 70 1012.6
20200329233617 55 103 2.0 8.0 0.00 0.31 0.28 69 1012.6
20200329233503 56 104 2.0 8.0 0.00 0.31 0.28 70 1012.6
20200329233408 56 76 4.0 8.0 0.00 0.31 0.28 69 1012.7
20200329233322 56 108 3.0 9.0 0.00 0.31 0.28 70 1012.7
20200329233212 56 39 3.0 9.0 0.00 0.31 0.28 70 1012.7
20200329233117 56 120 3.0 9.0 0.00 0.31 0.28 69 1012.7
20200329233003 56 43 1.0 9.0 0.00 0.31 0.28 70 1012.7
20200329232909 56 116 1.0 9.0 0.00 0.31 0.28 69 1012.6
20200329232816 56 9 1.0 9.0 0.00 0.31 0.28 70 1012.6
20200329232702 56 84 0.0 10.0 0.00 0.31 0.28 70 1012.6
20200329232619 56 30 1.0 10.0 0.00 0.31 0.28 69 1012.7
20200329232505 56 73 3.0 11.0 0.00 0.31 0.28 69 1012.6
20200329232410 56 18 4.0 11.0 0.00 0.31 0.28 69 1012.7
20200329232316 56 76 4.0 11.0 0.00 0.31 0.28 69 1012.7
20200329232203 56 79 6.0 16.0 0.00 0.31 0.28 69 1012.8
20200329232119 56 41 6.0 16.0 0.00 0.31 0.28 68 1012.8
20200329232005 56 57 6.0 16.0 0.00 0.31 0.28 69 1012.7
20200329231911 56 79 7.0 16.0 0.00 0.31 0.28 70 1012.8
20200329231818 56 79 7.0 16.0 0.00 0.31 0.28 69 1012.8
20200329231703 56 15 5.0 16.0 0.00 0.31 0.28 69 1012.7
20200329231609 56 58 4.0 16.0 0.00 0.31 0.28 69 1012.7
20200329231508 56 39 5.0 16.0 0.00 0.31 0.28 69 1012.8
20200329231413 56 79 5.0 16.0 0.00 0.31 0.28 69 1012.8
20200329231319 56 106 3.0 16.0 0.00 0.31 0.28 71 1012.8
20200329231204 56 16 2.0 9.0 0.00 0.31 0.28 70 1012.8
20200329231111 56 58 2.0 9.0 0.00 0.31 0.28 70 1012.8
20200329231027 56 42 2.0 9.0 0.00 0.31 0.28 70 1012.8
20200329230912 56 61 2.0 9.0 0.00 0.31 0.28 69 1012.8
20200329230818 56 23 3.0 9.0 0.00 0.31 0.28 69 1012.7
20200329230704 56 65 5.0 9.0 0.00 0.31 0.28 68 1012.7
20200329230611 56 41 5.0 10.0 0.00 0.31 0.28 68 1012.7
20200329230524 56 89 3.0 9.0 0.00 0.31 0.28 69 1012.8
20200329230414 56 71 3.0 7.0 0.00 0.31 0.28 70 1012.8
20200329230319 56 92 2.0 7.0 0.00 0.31 0.28 69 1012.8
20200329230205 56 49 3.0 8.0 0.00 0.31 0.28 68 1012.8
20200329230112 56 23 3.0 8.0 0.00 0.31 0.28 69 1012.8
20200329230017 56 360 1.0 8.0 0.00 0.31 0.28 70 1012.9
20200329225916 56 72 2.0 8.0 0.00 0.31 0.28 69 1012.8
20200329225821 56 60 1.0 8.0 0.00 0.31 0.28 70 1012.8
20200329225706 56 89 2.0 8.0 0.00 0.31 0.28 70 1012.8
20200329225613 56 67 2.0 8.0 0.00 0.31 0.28 69 1012.8
20200329225519 56 37 2.0 9.0 0.00 0.31 0.28 69 1012.8
20200329225409 56 333 2.0 9.0 0.00 0.31 0.28 69 1012.8
20200329225321 56 340 2.0 13.0 0.00 0.31 0.28 69 1012.9
20200329225207 56 54 3.0 13.0 0.00 0.31 0.28 69 1012.9
20200329225114 56 30 4.0 13.0 0.00 0.31 0.28 69 1012.8
20200329225019 56 30 3.0 13.0 0.00 0.31 0.28 69 1012.9
20200329224905 56 39 3.0 13.0 0.00 0.31 0.28 69 1012.8
20200329224822 56 65 5.0 13.0 0.00 0.31 0.28 68 1012.8
20200329224708 56 58 5.0 13.0 0.00 0.31 0.28 68 1012.8
20200329224614 56 58 5.0 13.0 0.00 0.31 0.28 68 1012.8
20200329224521 56 67 5.0 13.0 0.00 0.31 0.28 68 1012.9
20200329224406 56 11 5.0 13.0 0.00 0.31 0.28 68 1012.9
20200329224325 56 346 5.0 13.0 0.00 0.31 0.28 67 1012.9
20200329224202 56 25 6.0 13.0 0.00 0.31 0.28 68 1012.9
20200329224116 56 320 6.0 14.0 0.00 0.31 0.28 67 1012.9
20200329224002 56 49 6.0 13.0 0.00 0.31 0.28 67 1012.9
20200329223907 56 318 5.0 13.0 0.00 0.31 0.28 68 1012.9
20200329223814 56 340 3.0 13.0 0.00 0.31 0.28 69 1012.9
20200329223703 56 347 2.0 13.0 0.00 0.31 0.28 69 1012.9
20200329223616 56 66 4.0 13.0 0.00 0.31 0.28 68 1013.0
20200329223502 56 337 5.0 13.0 0.00 0.31 0.28 68 1013.0
20200329223408 56 347 4.0 13.0 0.00 0.31 0.28 68 1012.9
20200329223315 56 32 4.0 13.0 0.00 0.31 0.28 69 1012.9
20200329223205 56 41 4.0 13.0 0.00 0.31 0.28 69 1012.9
20200329223118 56 34 5.0 14.0 0.00 0.31 0.28 69 1012.9
20200329223024 56 37 6.0 14.0 0.00 0.31 0.28 69 1013.0
20200329222910 56 85 6.0 14.0 0.00 0.31 0.28 68 1012.9
20200329222816 56 68 4.0 14.0 0.00 0.31 0.28 67 1012.9
20200329222705 56 322 3.0 14.0 0.00 0.31 0.28 67 1013.0
20200329222611 56 23 5.0 14.0 0.00 0.31 0.28 67 1012.9
20200329222525 57 40 6.0 14.0 0.00 0.31 0.28 66 1013.0
20200329222411 57 25 7.0 14.0 0.00 0.31 0.28 66 1012.9
20200329222316 57 83 7.0 14.0 0.00 0.31 0.28 67 1013.1
20200329222203 57 61 6.0 12.0 0.00 0.31 0.28 66 1013.1
20200329222112 57 69 5.0 12.0 0.00 0.31 0.28 67 1013.1
20200329222026 57 97 4.0 11.0 0.00 0.31 0.28 67 1013.0
20200329221911 57 89 5.0 11.0 0.00 0.31 0.28 67 1013.0
20200329221817 57 19 5.0 11.0 0.00 0.31 0.28 67 1013.0
20200329221704 57 57 4.0 10.0 0.00 0.31 0.28 66 1013.0
20200329221613 57 30 4.0 10.0 0.00 0.31 0.28 67 1013.1
20200329221526 57 29 3.0 10.0 0.00 0.31 0.28 66 1013.1
20200329221413 57 25 3.0 10.0 0.00 0.31 0.28 67 1013.1
20200329221317 57 85 3.0 10.0 0.00 0.31 0.28 67 1013.1
20200329221203 57 49 4.0 12.0 0.00 0.31 0.28 66 1013.1
20200329221109 57 6 3.0 12.0 0.00 0.31 0.28 68 1013.1
20200329221021 57 43 5.0 12.0 0.00 0.31 0.28 67 1013.1
20200329220905 57 105 4.0 12.0 0.00 0.31 0.28 68 1013.2
20200329220818 57 62 2.0 12.0 0.00 0.31 0.28 68 1013.0
20200329220705 57 352 3.0 12.0 0.00 0.31 0.28 66 1013.1
20200329220610 57 39 3.0 12.0 0.00 0.31 0.28 66 1013.0
20200329220521 57 4 4.0 12.0 0.00 0.31 0.28 66 1013.0
20200329220406 57 322 3.0 12.0 0.00 0.31 0.28 67 1013.0
20200329220320 57 340 2.0 11.0 0.00 0.31 0.28 67 1013.1
20200329220206 57 39 4.0 11.0 0.00 0.31 0.28 69 1013.1
20200329220112 57 30 3.0 11.0 0.00 0.33 0.28 67 1013.1
20200329220002 57 39 1.0 9.0 0.00 0.33 0.28 68 1013.0
20200329215908 57 41 3.0 9.0 0.00 0.33 0.28 68 1013.0
20200329215822 57 131 4.0 9.0 0.00 0.33 0.28 68 1013.1
20200329215726 57 352 4.0 10.0 0.00 0.33 0.28 68 1013.1
20200329215604 57 55 3.0 11.0 0.00 0.33 0.28 67 1013.1
20200329215510 57 102 1.0 11.0 0.00 0.33 0.28 68 1013.1
20200329215420 57 49 4.0 11.0 0.00 0.33 0.28 68 1013.1
20200329215305 57 58 3.0 12.0 0.00 0.33 0.28 70 1013.1
20200329215218 57 107 0.0 12.0 0.00 0.33 0.28 73 1013.2
20200329215104 56 73 2.0 12.0 0.00 0.33 0.28 70 1013.2
20200329215011 56 297 4.0 12.0 0.00 0.33 0.28 69 1013.2
20200329214916 56 23 6.0 12.0 0.00 0.33 0.28 68 1013.2
20200329214806 56 27 4.0 12.0 0.00 0.33 0.28 70 1013.2
20200329214719 56 323 3.0 12.0 0.00 0.33 0.28 71 1013.3
20200329214606 56 347 4.0 12.0 0.00 0.33 0.28 70 1013.3
20200329214511 56 72 4.0 13.0 0.00 0.33 0.28 71 1013.3
20200329214418 56 79 2.0 11.0 0.00 0.33 0.28 72 1013.2
20200329214308 56 338 3.0 17.0 0.00 0.33 0.28 71 1013.1
20200329214213 56 354 4.0 17.0 0.00 0.33 0.28 69 1013.2
20200329214127 56 30 4.0 17.0 0.00 0.33 0.28 70 1013.3
20200329214012 56 82 6.0 17.0 0.00 0.33 0.28 69 1013.2
20200329213919 56 83 6.0 17.0 0.00 0.33 0.28 71 1013.4
20200329213809 56 30 4.0 17.0 0.00 0.33 0.28 71 1013.2
20200329213715 56 346 3.0 17.0 0.00 0.33 0.28 71 1013.3
20200329213628 56 49 6.0 17.0 0.00 0.33 0.28 71 1013.3
20200329213513 56 31 5.0 17.0 0.00 0.33 0.28 70 1013.4
20200329213419 56 30 3.0 11.0 0.00 0.33 0.28 73 1013.4
20200329213305 56 39 6.0 12.0 0.00 0.33 0.28 72 1013.3
20200329213202 56 25 4.0 12.0 0.00 0.33 0.28 74 1013.3
20200329213109 56 22 3.0 11.0 0.00 0.33 0.28 72 1013.3
20200329213022 56 57 3.0 11.0 0.00 0.33 0.28 74 1013.3
20200329212928 55 37 4.0 11.0 0.00 0.33 0.28 73 1013.3
20200329212813 55 77 4.0 11.0 0.00 0.33 0.28 73 1013.3
20200329212703 55 263 6.0 11.0 0.00 0.33 0.28 72 1013.3
20200329212610 55 43 6.0 12.0 0.00 0.33 0.28 74 1013.4
20200329212515 55 25 4.0 10.0 0.00 0.33 0.28 74 1013.4
20200329212401 55 49 2.0 10.0 0.00 0.33 0.28 75 1013.4
20200329212314 55 347 1.0 8.0 0.00 0.33 0.28 77 1013.4
20200329212204 54 49 2.0 11.0 0.00 0.33 0.28 74 1013.5
20200329212110 54 81 2.0 13.0 0.00 0.33 0.28 75 1013.5
20200329212017 54 342 2.0 13.0 0.00 0.33 0.28 75 1013.5
20200329211903 54 33 3.0 13.0 0.00 0.33 0.28 74 1013.5
20200329211815 54 58 2.0 13.0 0.00 0.33 0.28 74 1013.5
20200329211702 54 18 3.0 13.0 0.00 0.33 0.28 73 1013.6
20200329211611 54 23 3.0 13.0 0.00 0.33 0.28 73 1013.6
20200329211518 54 33 3.0 13.0 0.00 0.33 0.28 73 1013.5
20200329211404 55 19 7.0 13.0 0.00 0.33 0.28 72 1013.6
20200329211309 55 77 6.0 13.0 0.00 0.33 0.28 72 1013.7
20200329211222 55 326 3.0 11.0 0.00 0.33 0.28 73 1013.7
20200329211112 55 25 3.0 11.0 0.00 0.33 0.28 73 1013.7
20200329211018 55 72 5.0 11.0 0.00 0.33 0.28 72 1013.6
20200329210905 55 16 7.0 11.0 0.00 0.33 0.28 73 1013.7
20200329210811 55 56 4.0 11.0 0.00 0.33 0.28 74 1013.7
20200329210724 55 43 3.0 11.0 0.00 0.33 0.28 76 1013.6
20200329210609 55 54 1.0 11.0 0.00 0.33 0.28 77 1013.7
20200329210519 54 47 0.0 7.0 0.00 0.33 0.28 78 1013.7
20200329210405 54 51 0.0 7.0 0.00 0.33 0.28 77 1013.7
20200329210312 54 103 1.0 7.0 0.00 0.33 0.28 77 1013.8
20200329210224 54 81 1.0 7.0 0.00 0.33 0.28 78 1013.8
20200329210111 54 63 3.0 7.0 0.00 0.34 0.28 77 1013.8
20200329210020 54 61 4.0 7.0 0.00 0.34 0.28 76 1013.8
20200329205906 54 11 4.0 8.0 0.00 0.34 0.28 76 1013.8
20200329205812 54 51 5.0 8.0 0.00 0.34 0.28 76 1013.8
20200329205718 54 211 4.0 8.0 0.00 0.34 0.28 77 1013.8
20200329205604 54 54 2.0 8.0 0.00 0.34 0.28 78 1013.9
20200329205517 54 307 2.0 8.0 0.00 0.34 0.28 78 1013.9
20200329205407 54 106 3.0 8.0 0.00 0.34 0.28 78 1013.9
20200329205318 54 342 3.0 8.0 0.00 0.34 0.28 77 1013.8
20200329205234 54 342 3.0 8.0 0.00 0.34 0.28 76 1013.9
20200329205112 54 46 3.0 8.0 0.00 0.34 0.28 76 1013.9
20200329205019 54 15 3.0 8.0 0.00 0.34 0.28 79 1013.9
20200329204908 54 54 5.0 8.0 0.00 0.34 0.28 77 1013.8
20200329204814 54 67 4.0 9.0 0.00 0.34 0.28 78 1013.9
20200329204720 54 18 4.0 9.0 0.00 0.34 0.28 79 1013.9
20200329204606 54 86 2.0 9.0 0.00 0.34 0.28 80 1013.9
20200329204520 54 335 1.0 9.0 0.00 0.34 0.28 80 1013.8
20200329204409 53 58 0.0 9.0 0.00 0.34 0.28 80 1013.9
20200329204315 53 58 1.0 10.0 0.00 0.34 0.28 80 1013.9
20200329204201 53 54 4.0 10.0 0.00 0.34 0.28 80 1013.9
20200329204108 53 47 4.0 10.0 0.00 0.34 0.28 80 1013.9
20200329204013 53 294 3.0 10.0 0.00 0.34 0.28 79 1013.9
20200329203927 53 25 2.0 10.0 0.00 0.34 0.28 79 1014.0
20200329203817 53 41 2.0 10.0 0.00 0.34 0.28 79 1014.0
20200329203703 53 356 5.0 10.0 0.00 0.34 0.28 79 1014.0
20200329203609 53 30 7.0 10.0 0.00 0.34 0.28 79 1014.0
20200329203515 53 30 6.0 10.0 0.00 0.34 0.28 79 1014.0
20200329203427 53 60 5.0 10.0 0.00 0.34 0.28 80 1013.9
20200329203317 53 71 2.0 11.0 0.00 0.34 0.28 80 1013.9
20200329203203 53 47 2.0 11.0 0.00 0.34 0.28 80 1014.0
20200329203108 53 352 3.0 11.0 0.00 0.34 0.28 80 1014.0
20200329203015 53 68 4.0 11.0 0.00 0.34 0.28 80 1014.0
20200329202927 53 15 3.0 11.0 0.00 0.34 0.28 79 1014.0
20200329202806 53 276 2.0 11.0 0.00 0.34 0.28 79 1014.1
20200329202722 53 82 4.0 11.0 0.00 0.34 0.28 79 1014.1
20200329202608 53 15 5.0 11.0 0.00 0.34 0.28 79 1014.0
20200329202514 53 56 4.0 12.0 0.00 0.34 0.28 80 1014.0
20200329202421 53 49 2.0 9.0 0.00 0.34 0.28 80 1014.0
20200329202307 53 39 1.0 6.0 0.00 0.34 0.28 81 1013.9
20200329202224 53 73 1.0 6.0 0.00 0.34 0.28 81 1014.0
20200329202110 53 44 2.0 6.0 0.00 0.34 0.28 80 1014.0
20200329202016 53 27 2.0 10.0 0.00 0.34 0.28 81 1014.0
20200329201901 53 27 2.0 10.0 0.00 0.34 0.28 80 1014.0
20200329201808 53 79 3.0 10.0 0.00 0.34 0.28 80 1014.0
20200329201720 53 353 3.0 10.0 0.00 0.34 0.28 80 1014.0
20200329201610 53 60 3.0 10.0 0.00 0.34 0.28 80 1014.0
20200329201517 53 37 2.0 10.0 0.00 0.34 0.28 82 1014.0
20200329201402 53 309 1.0 10.0 0.00 0.34 0.28 81 1014.0
20200329201309 53 86 3.0 10.0 0.00 0.34 0.28 81 1014.1
20200329201214 52 44 4.0 10.0 0.00 0.34 0.28 81 1014.1
20200329201112 52 46 4.0 7.0 0.00 0.34 0.28 82 1014.1
20200329201015 52 34 3.0 8.0 0.00 0.34 0.28 82 1014.1
20200329200901 52 89 1.0 7.0 0.00 0.34 0.28 82 1014.1
20200329200807 52 248 2.0 9.0 0.00 0.34 0.28 83 1014.2
20200329200714 52 12 3.0 9.0 0.00 0.34 0.28 83 1014.2
20200329200603 52 19 3.0 9.0 0.00 0.34 0.28 84 1014.1
20200329200516 52 20 2.0 9.0 0.00 0.34 0.28 84 1014.1
20200329200401 52 13 3.0 9.0 0.00 0.34 0.28 83 1014.2
20200329200308 52 40 3.0 9.0 0.00 0.34 0.28 83 1014.1
20200329200213 52 68 2.0 9.0 0.00 0.34 0.28 83 1014.2
20200329200127 52 83 4.0 11.0 0.00 0.35 0.28 83 1014.1
20200329200015 52 61 4.0 11.0 0.00 0.35 0.28 84 1014.2
20200329195902 52 23 4.0 11.0 0.00 0.35 0.28 83 1014.0
20200329195807 52 12 3.0 11.0 0.00 0.35 0.28 83 1014.2
20200329195714 52 352 3.0 11.0 0.00 0.35 0.28 83 1014.2
20200329195628 52 53 3.0 11.0 0.00 0.35 0.28 83 1014.2
20200329195516 52 316 4.0 11.0 0.00 0.35 0.28 84 1014.2
20200329195422 52 44 6.0 11.0 0.00 0.35 0.28 83 1014.2
20200329195308 52 19 5.0 12.0 0.00 0.35 0.28 84 1014.2
20200329195215 52 323 3.0 7.0 0.00 0.35 0.28 84 1014.2
20200329195120 52 360 2.0 7.0 0.00 0.35 0.28 84 1014.3
20200329195006 52 34 2.0 7.0 0.00 0.35 0.28 84 1014.3
20200329194924 52 20 3.0 7.0 0.00 0.35 0.28 84 1014.3
20200329194810 52 37 5.0 7.0 0.00 0.35 0.28 83 1014.2
20200329194715 52 330 4.0 7.0 0.00 0.35 0.28 83 1014.2
20200329194601 52 49 1.0 7.0 0.00 0.35 0.28 84 1014.3
20200329194507 52 77 1.0 7.0 0.00 0.35 0.28 85 1014.3
20200329194424 52 43 1.0 7.0 0.00 0.35 0.28 85 1014.3
20200329194310 52 9 2.0 7.0 0.00 0.35 0.28 85 1014.3
20200329194217 52 103 2.0 7.0 0.00 0.35 0.28 85 1014.3
20200329194102 52 39 2.0 9.0 0.00 0.35 0.28 85 1014.3
20200329194008 52 37 2.0 9.0 0.00 0.35 0.28 85 1014.3
20200329193914 52 65 3.0 9.0 0.00 0.35 0.28 85 1014.3
20200329193805 52 58 4.0 9.0 0.00 0.35 0.28 86 1014.3
20200329193717 52 43 3.0 9.0 0.00 0.35 0.28 86 1014.4
20200329193604 52 58 4.0 9.0 0.00 0.35 0.28 85 1014.4
20200329193510 51 30 4.0 9.0 0.00 0.35 0.28 85 1014.3
20200329193415 51 27 3.0 9.0 0.00 0.35 0.28 85 1014.3
20200329193305 51 34 3.0 9.0 0.00 0.35 0.28 86 1014.3
20200329193218 51 51 2.0 10.0 0.00 0.35 0.28 86 1014.4
20200329193104 51 39 2.0 7.0 0.00 0.35 0.28 86 1014.4
20200329193011 51 30 2.0 7.0 0.00 0.35 0.28 86 1014.4
20200329192917 51 354 2.0 7.0 0.00 0.35 0.28 87 1014.4
20200329192806 51 49 2.0 7.0 0.00 0.35 0.28 87 1014.4
20200329192719 51 39 1.0 7.0 0.00 0.35 0.28 87 1014.4
20200329192606 51 4 1.0 7.0 0.00 0.35 0.28 87 1014.5
20200329192511 51 70 1.0 7.0 0.00 0.35 0.28 87 1014.5
20200329192417 51 51 2.0 7.0 0.00 0.35 0.28 87 1014.5
20200329192303 51 22 1.0 8.0 0.00 0.35 0.28 87 1014.5
20200329192214 51 70 2.0 8.0 0.00 0.35 0.28 87 1014.5
20200329192127 51 79 4.0 8.0 0.00 0.35 0.28 86 1014.5
20200329192013 51 57 4.0 8.0 0.00 0.35 0.28 86 1014.5
20200329191918 51 53 3.0 8.0 0.00 0.35 0.28 87 1014.5
20200329191804 51 22 3.0 8.0 0.00 0.35 0.28 88 1014.5
20200329191714 51 43 2.0 8.0 0.00 0.35 0.28 87 1014.5
20200329191628 51 336 2.0 8.0 0.00 0.35 0.28 87 1014.5
20200329191513 51 342 4.0 9.0 0.00 0.35 0.28 87 1014.5
20200329191420 51 49 4.0 7.0 0.00 0.35 0.28 87 1014.5
20200329191305 51 15 4.0 8.0 0.00 0.35 0.28 87 1014.5
20200329191212 51 17 3.0 7.0 0.00 0.35 0.28 87 1014.5
20200329191101 51 43 4.0 7.0 0.00 0.35 0.28 87 1014.5
20200329191015 51 30 4.0 8.0 0.00 0.35 0.28 87 1014.5
20200329190920 51 49 3.0 6.0 0.00 0.35 0.28 87 1014.5
20200329190807 51 30 2.0 6.0 0.00 0.35 0.28 87 1014.5
20200329190712 51 50 3.0 6.0 0.00 0.35 0.28 87 1014.6
20200329190602 51 55 2.0 7.0 0.00 0.35 0.28 87 1014.5
20200329190508 51 356 2.0 7.0 0.00 0.35 0.28 88 1014.6
20200329190421 51 342 2.0 7.0 0.00 0.35 0.28 88 1014.6
20200329190307 51 354 3.0 7.0 0.00 0.35 0.28 88 1014.6
20200329190213 51 37 2.0 7.0 0.00 0.35 0.28 88 1014.5
20200329190103 51 77 2.0 10.0 0.00 0.35 0.28 88 1014.5
20200329190009 51 321 3.0 10.0 0.00 0.35 0.28 88 1014.5
20200329185923 51 15 3.0 10.0 0.00 0.35 0.28 88 1014.5
20200329185809 51 333 3.0 10.0 0.00 0.35 0.28 88 1014.5
20200329185715 51 49 3.0 10.0 0.00 0.35 0.28 88 1014.5
20200329185620 51 323 2.0 10.0 0.00 0.35 0.28 88 1014.6
20200329185511 51 330 4.0 10.0 0.00 0.35 0.28 87 1014.6
20200329185424 51 53 4.0 10.0 0.00 0.35 0.28 88 1014.5
20200329185310 51 30 1.0 5.0 0.00 0.35 0.28 89 1014.6
20200329185216 51 30 0.0 7.0 0.00 0.35 0.28 89 1014.5
20200329185101 51 79 1.0 7.0 0.00 0.35 0.28 89 1014.5
20200329185012 51 73 1.0 7.0 0.00 0.35 0.28 88 1014.5
20200329184917 51 41 2.0 7.0 0.00 0.35 0.28 89 1014.5
20200329184803 51 345 1.0 7.0 0.00 0.35 0.28 89 1014.6
20200329184716 51 63 0.0 7.0 0.00 0.35 0.28 89 1014.5
20200329184602 51 79 2.0 7.0 0.00 0.35 0.28 88 1014.5
20200329184508 51 54 3.0 7.0 0.00 0.35 0.28 88 1014.5
20200329184418 51 68 3.0 7.0 0.00 0.35 0.28 88 1014.6
20200329184305 51 33 2.0 8.0 0.00 0.35 0.28 89 1014.5
20200329184218 51 51 2.0 8.0 0.00 0.35 0.28 89 1014.5
20200329184104 51 23 1.0 8.0 0.00 0.35 0.28 89 1014.5
20200329184009 51 49 2.0 8.0 0.00 0.35 0.28 89 1014.5
20200329183919 51 19 3.0 8.0 0.00 0.35 0.28 89 1014.6
20200329183806 51 30 2.0 8.0 0.00 0.35 0.28 89 1014.5
20200329183711 51 82 1.0 8.0 0.00 0.35 0.28 89 1014.5
20200329183624 51 39 3.0 8.0 0.00 0.35 0.28 88 1014.5
20200329183510 51 21 3.0 8.0 0.00 0.35 0.28 88 1014.5
20200329183416 51 89 2.0 7.0 0.00 0.35 0.28 89 1014.5
20200329183307 51 322 2.0 8.0 0.00 0.35 0.28 89 1014.5
20200329183212 51 39 2.0 8.0 0.00 0.35 0.28 89 1014.4
20200329183126 51 321 2.0 8.0 0.00 0.35 0.28 89 1014.5
20200329183012 51 53 3.0 8.0 0.00 0.35 0.28 89 1014.5
20200329182917 51 352 3.0 8.0 0.00 0.35 0.28 89 1014.5
20200329182808 51 46 2.0 8.0 0.00 0.35 0.28 89 1014.5
20200329182713 51 15 3.0 8.0 0.00 0.35 0.28 89 1014.5
20200329182626 51 33 3.0 8.0 0.00 0.35 0.28 89 1014.5
20200329182511 51 293 1.0 10.0 0.00 0.35 0.28 90 1014.5
20200329182418 51 39 1.0 10.0 0.00 0.35 0.28 90 1014.5
20200329182308 51 77 2.0 10.0 0.00 0.35 0.28 90 1014.5
20200329182214 51 60 3.0 10.0 0.00 0.35 0.28 90 1014.5
20200329182128 51 20 2.0 10.0 0.00 0.35 0.28 90 1014.5
20200329182004 51 352 2.0 10.0 0.00 0.35 0.28 90 1014.5
20200329181917 50 335 1.0 10.0 0.00 0.35 0.28 90 1014.5
20200329181803 50 287 4.0 10.0 0.00 0.35 0.28 90 1014.5
20200329181713 50 49 5.0 10.0 0.00 0.35 0.28 91 1014.5
20200329181620 50 345 3.0 10.0 0.00 0.35 0.28 92 1014.6
20200329181506 50 134 1.0 5.0 0.00 0.35 0.28 92 1014.6
20200329181419 50 56 0.0 7.0 0.00 0.35 0.28 92 1014.6
20200329181305 50 71 2.0 7.0 0.00 0.35 0.28 92 1014.6
20200329181214 50 77 2.0 7.0 0.00 0.35 0.28 91 1014.6
20200329181120 50 49 2.0 7.0 0.00 0.35 0.28 92 1014.6
20200329181008 50 13 2.0 7.0 0.00 0.35 0.28 92 1014.6
20200329180920 50 60 1.0 7.0 0.00 0.35 0.28 92 1014.6
20200329180806 50 328 2.0 7.0 0.00 0.35 0.28 92 1014.6
20200329180711 50 51 3.0 7.0 0.00 0.35 0.28 92 1014.6
20200329180601 50 58 2.0 7.0 0.00 0.35 0.28 92 1014.6
20200329180507 49 34 3.0 8.0 0.00 0.35 0.28 92 1014.6
20200329180413 49 347 2.0 7.0 0.00 0.35 0.28 92 1014.5
20200329180327 49 321 2.0 7.0 0.00 0.35 0.28 92 1014.6
20200329180212 49 63 3.0 8.0 0.00 0.35 0.28 93 1014.6
20200329180102 49 45 2.0 6.0 0.00 0.35 0.28 93 1014.5
20200329180008 49 68 1.0 4.0 0.00 0.35 0.28 93 1014.6
20200329175914 49 330 1.0 4.0 0.00 0.35 0.28 93 1014.5
20200329175828 49 81 1.0 6.0 0.00 0.35 0.28 93 1014.5
20200329175713 49 18 2.0 6.0 0.00 0.35 0.28 93 1014.5
20200329175603 49 5 2.0 6.0 0.00 0.35 0.28 93 1014.5
20200329175509 49 34 2.0 6.0 0.00 0.35 0.28 93 1014.5
20200329175415 49 43 2.0 7.0 0.00 0.35 0.28 93 1014.5
20200329175302 49 60 1.0 7.0 0.00 0.35 0.28 93 1014.5
20200329175208 49 53 1.0 7.0 0.00 0.35 0.28 93 1014.5
20200329175120 49 20 2.0 7.0 0.00 0.35 0.28 93 1014.5
20200329175010 49 54 3.0 11.0 0.00 0.35 0.28 93 1014.5
20200329174916 49 27 3.0 11.0 0.00 0.35 0.28 93 1014.5
20200329174802 49 53 3.0 11.0 0.00 0.35 0.28 93 1014.5
20200329174708 49 41 3.0 11.0 0.00 0.35 0.28 93 1014.5
20200329174621 49 340 3.0 11.0 0.00 0.35 0.28 93 1014.5
20200329174512 49 74 2.0 11.0 0.00 0.35 0.28 94 1014.5
20200329174417 49 46 3.0 11.0 0.00 0.35 0.28 94 1014.6
20200329174304 49 49 4.0 11.0 0.00 0.35 0.28 94 1014.5
20200329174209 49 75 2.0 12.0 0.00 0.35 0.28 94 1014.5
20200329174122 49 60 2.0 4.0 0.00 0.35 0.28 94 1014.5
20200329174009 49 45 2.0 4.0 0.00 0.35 0.28 94 1014.6
20200329173919 49 13 0.0 4.0 0.00 0.35 0.28 94 1014.5
20200329173804 49 63 0.0 4.0 0.00 0.35 0.28 94 1014.5
20200329173710 49 84 0.0 4.0 0.00 0.35 0.28 94 1014.5
20200329173616 48 86 0.0 4.0 0.00 0.35 0.28 94 1014.5
20200329173502 48 44 0.0 4.0 0.00 0.35 0.28 94 1014.5
20200329173420 48 77 0.0 6.0 0.00 0.35 0.28 94 1014.4
20200329173305 48 71 1.0 6.0 0.00 0.35 0.28 94 1014.4
20200329173211 48 83 1.0 6.0 0.00 0.35 0.28 94 1014.4
20200329173117 48 33 2.0 6.0 0.00 0.35 0.28 94 1014.4
20200329173004 48 54 2.0 6.0 0.00 0.35 0.28 94 1014.5
20200329172916 48 37 1.0 6.0 0.00 0.35 0.28 94 1014.4
20200329172806 48 84 1.0 7.0 0.00 0.35 0.28 94 1014.4
20200329172712 48 41 2.0 7.0 0.00 0.35 0.28 94 1014.4
20200329172619 48 13 3.0 7.0 0.00 0.35 0.28 94 1014.4
20200329172504 48 62 2.0 7.0 0.00 0.35 0.28 95 1014.4
20200329172418 48 95 1.0 7.0 0.00 0.35 0.28 95 1014.4
20200329172308 48 37 3.0 7.0 0.00 0.35 0.28 94 1014.4
20200329172213 48 330 3.0 7.0 0.00 0.35 0.28 95 1014.4
20200329172119 48 53 3.0 7.0 0.00 0.35 0.28 94 1014.4
20200329172005 48 53 3.0 7.0 0.00 0.35 0.28 95 1014.3
20200329171911 48 352 1.0 6.0 0.00 0.35 0.28 95 1014.4
20200329171824 48 47 1.0 7.0 0.00 0.35 0.28 95 1014.4
20200329171713 48 46 1.0 7.0 0.00 0.35 0.28 95 1014.3
20200329171619 48 53 2.0 7.0 0.00 0.35 0.28 95 1014.4
20200329171505 48 61 1.0 7.0 0.00 0.35 0.28 95 1014.3
20200329171411 48 39 1.0 7.0 0.00 0.35 0.28 95 1014.3
20200329171324 48 39 1.0 7.0 0.00 0.35 0.28 95 1014.3
20200329171215 48 57 1.0 7.0 0.00 0.35 0.28 95 1014.3
20200329171121 48 39 2.0 7.0 0.00 0.35 0.28 95 1014.3
20200329171007 48 45 2.0 7.0 0.00 0.35 0.28 95 1014.3
20200329170912 48 33 3.0 7.0 0.00 0.35 0.28 95 1014.3
20200329170826 48 293 3.0 8.0 0.00 0.35 0.28 95 1014.2
20200329170715 48 54 3.0 7.0 0.00 0.35 0.28 95 1014.3
20200329170621 48 25 3.0 7.0 0.00 0.35 0.28 95 1014.3
20200329170507 47 11 2.0 7.0 0.00 0.35 0.28 95 1014.3
20200329170413 47 39 2.0 7.0 0.00 0.35 0.28 95 1014.2
20200329170319 47 333 2.0 7.0 0.00 0.35 0.28 95 1014.2
20200329170206 47 340 2.0 7.0 0.00 0.35 0.28 95 1014.2
20200329170122 47 338 1.0 5.0 0.00 0.35 0.28 95 1014.3
20200329170008 47 15 1.0 5.0 0.00 0.35 0.28 95 1014.2
20200329165914 47 69 1.0 5.0 0.00 0.35 0.28 95 1014.2
20200329165820 47 318 1.0 5.0 0.00 0.35 0.28 95 1014.3
20200329165707 47 334 1.0 5.0 0.00 0.35 0.28 95 1014.2
20200329165624 47 73 2.0 5.0 0.00 0.35 0.28 95 1014.2
20200329165509 47 43 2.0 5.0 0.00 0.35 0.28 95 1014.2
20200329165415 47 43 0.0 3.0 0.00 0.35 0.28 95 1014.2
20200329165301 47 53 0.0 3.0 0.00 0.35 0.28 95 1014.2
20200329165208 47 53 0.0 3.0 0.00 0.35 0.28 95 1014.2
20200329165117 47 53 0.0 5.0 0.00 0.35 0.28 95 1014.2
20200329165011 47 53 1.0 5.0 0.00 0.35 0.28 95 1014.2
20200329164916 47 53 1.0 5.0 0.00 0.35 0.28 95 1014.1
20200329164803 47 342 1.0 5.0 0.00 0.35 0.28 95 1014.2
20200329164708 47 20 1.0 5.0 0.00 0.35 0.28 95 1014.1
20200329164615 47 39 0.0 5.0 0.00 0.35 0.28 95 1014.2
20200329164504 47 57 1.0 5.0 0.00 0.35 0.28 95 1014.2
20200329164418 47 57 2.0 5.0 0.00 0.35 0.28 95 1014.2
20200329164303 47 338 1.0 5.0 0.00 0.35 0.28 95 1014.2
20200329164209 47 37 1.0 4.0 0.00 0.35 0.28 95 1014.2
20200329164115 47 49 2.0 5.0 0.00 0.35 0.28 95 1014.2
20200329164005 47 352 1.0 5.0 0.00 0.35 0.28 95 1014.2
20200329163918 47 27 0.0 5.0 0.00 0.35 0.28 95 1014.2
20200329163804 47 65 2.0 5.0 0.00 0.35 0.28 95 1014.2
20200329163710 47 27 2.0 5.0 0.00 0.35 0.28 95 1014.2
20200329163616 47 51 1.0 5.0 0.00 0.35 0.28 95 1014.2
20200329163502 47 33 1.0 5.0 0.00 0.35 0.28 95 1014.2
20200329163412 47 33 2.0 5.0 0.00 0.35 0.28 95 1014.2
20200329163326 47 342 2.0 4.0 0.00 0.35 0.28 95 1014.2
20200329163211 47 355 2.0 4.0 0.00 0.35 0.28 95 1014.2
20200329163117 47 346 2.0 4.0 0.00 0.35 0.28 95 1014.2
20200329163003 47 342 0.0 3.0 0.00 0.35 0.28 95 1014.2
20200329162913 47 55 0.0 3.0 0.00 0.35 0.28 95 1014.2
20200329162827 47 56 0.0 3.0 0.00 0.35 0.28 95 1014.2
20200329162712 47 57 0.0 3.0 0.00 0.35 0.28 95 1014.2
20200329162618 47 57 0.0 3.0 0.00 0.35 0.28 95 1014.2
20200329162504 47 57 0.0 3.0 0.00 0.35 0.28 95 1014.2
20200329162410 47 57 1.0 3.0 0.00 0.35 0.28 95 1014.2
20200329162328 47 57 1.0 3.0 0.00 0.35 0.28 95 1014.2
20200329162214 47 50 1.0 3.0 0.00 0.35 0.28 95 1014.3
20200329162120 47 46 1.0 3.0 0.00 0.35 0.28 95 1014.3
20200329162006 47 37 0.0 3.0 0.00 0.35 0.28 95 1014.3
20200329161911 47 30 0.0 3.0 0.00 0.35 0.28 95 1014.2
20200329161801 47 18 0.0 6.0 0.00 0.35 0.28 95 1014.2
20200329161707 47 58 0.0 6.0 0.00 0.35 0.28 95 1014.2
20200329161620 47 58 0.0 6.0 0.00 0.35 0.28 95 1014.2
20200329161507 47 60 0.0 6.0 0.00 0.35 0.28 95 1014.2
20200329161412 47 53 0.0 6.0 0.00 0.35 0.28 95 1014.2
20200329161302 47 33 0.0 6.0 0.00 0.35 0.28 95 1014.2
20200329161209 47 41 1.0 6.0 0.00 0.35 0.28 95 1014.2
20200329161121 47 41 2.0 6.0 0.00 0.35 0.28 95 1014.2
20200329160914 47 340 2.0 6.0 0.00 0.35 0.28 95 1014.1
20200329160820 47 319 1.0 3.0 0.00 0.35 0.28 95 1014.2
20200329160711 47 41 0.0 3.0 0.00 0.35 0.28 95 1014.2
20200329160624 47 49 0.0 3.0 0.00 0.35 0.28 95 1014.2
20200329160510 47 44 1.0 3.0 0.00 0.35 0.28 95 1014.2
20200329160415 47 50 1.0 3.0 0.00 0.35 0.28 95 1014.2
20200329160301 47 360 1.0 3.0 0.00 0.35 0.28 95 1014.2
20200329160211 47 26 1.0 3.0 0.00 0.35 0.28 95 1014.2
20200329160117 47 34 1.0 3.0 0.00 0.36 0.28 95 1014.1
20200329160003 47 33 1.0 3.0 0.00 0.36 0.28 95 1014.2
20200329155916 47 29 1.0 3.0 0.00 0.36 0.28 95 1014.2
20200329155802 47 33 2.0 4.0 0.00 0.36 0.28 95 1014.2
20200329155708 47 23 2.0 4.0 0.00 0.36 0.28 95 1014.2
20200329155618 47 23 1.0 4.0 0.00 0.36 0.28 95 1014.2
20200329155505 47 42 0.0 4.0 0.00 0.36 0.28 95 1014.2
20200329155417 47 43 1.0 4.0 0.00 0.36 0.28 95 1014.1
20200329155303 47 43 1.0 4.0 0.00 0.36 0.28 95 1014.1
20200329155209 47 330 2.0 4.0 0.00 0.36 0.28 95 1014.2
20200329155119 47 26 1.0 4.0 0.00 0.36 0.28 95 1014.2
20200329155005 47 37 0.0 2.0 0.00 0.36 0.28 95 1014.1
20200329154911 47 37 1.0 2.0 0.00 0.36 0.28 95 1014.2
20200329154825 47 23 1.0 2.0 0.00 0.36 0.28 95 1014.1
20200329154710 47 27 0.0 1.0 0.00 0.36 0.28 95 1014.1
20200329154616 47 61 0.0 1.0 0.00 0.36 0.28 95 1014.1
20200329154504 47 67 0.0 3.0 0.00 0.36 0.28 95 1014.1
20200329154324 47 30 0.0 3.0 0.00 0.36 0.28 95 1014.1
20200329154209 47 20 0.0 3.0 0.00 0.36 0.28 95 1014.1
20200329154115 47 45 0.0 3.0 0.00 0.36 0.28 95 1014.1
20200329154005 47 45 0.0 3.0 0.00 0.36 0.28 95 1014.0
20200329153911 47 46 0.0 3.0 0.00 0.36 0.28 95 1014.0
20200329153824 47 45 1.0 3.0 0.00 0.36 0.28 95 1014.0
20200329153710 47 11 1.0 3.0 0.00 0.36 0.28 95 1014.1
20200329153615 47 12 0.0 2.0 0.00 0.36 0.28 95 1014.0
20200329153505 47 25 0.0 1.0 0.00 0.36 0.28 95 1014.0
20200329153411 47 25 0.0 1.0 0.00 0.36 0.28 95 1014.0
20200329153326 47 25 0.0 1.0 0.01 0.36 0.28 95 1014.0
20200329153203 47 25 0.0 1.0 0.01 0.36 0.28 95 1014.1
20200329153116 47 25 0.0 1.0 0.01 0.36 0.28 95 1014.0
20200329153003 46 23 0.0 2.0 0.01 0.36 0.28 95 1014.1
20200329152912 46 23 0.0 2.0 0.01 0.36 0.28 95 1014.1
20200329152818 46 23 0.0 3.0 0.01 0.36 0.28 95 1014.1
20200329152704 46 23 0.0 3.0 0.01 0.36 0.28 95 1014.1
20200329152617 46 30 0.0 3.0 0.01 0.36 0.28 95 1014.1
20200329152503 46 30 0.0 3.0 0.01 0.36 0.28 95 1014.0
20200329152413 46 30 1.0 4.0 0.01 0.36 0.28 95 1014.1
20200329152319 46 30 0.0 4.0 0.01 0.36 0.28 95 1014.0
20200329152118 46 33 1.0 4.0 0.01 0.36 0.28 95 1014.0
20200329152024 46 33 1.0 4.0 0.01 0.36 0.28 95 1014.1
20200329151910 46 15 1.0 4.0 0.01 0.36 0.28 95 1014.0
20200329151821 46 33 1.0 4.0 0.01 0.36 0.28 95 1014.1
20200329151706 46 47 1.0 4.0 0.01 0.36 0.28 95 1014.0
20200329151612 46 33 1.0 4.0 0.01 0.36 0.28 95 1014.0
20200329151526 46 46 0.0 3.0 0.01 0.36 0.28 95 1014.0
20200329151411 46 33 1.0 3.0 0.01 0.36 0.28 95 1014.1
20200329151301 46 13 1.0 3.0 0.01 0.36 0.28 95 1014.0
20200329151207 46 15 1.0 3.0 0.01 0.36 0.28 95 1014.1
20200329151113 46 1 1.0 3.0 0.01 0.36 0.28 95 1014.1
20200329151027 46 15 1.0 3.0 0.01 0.36 0.28 95 1014.1
20200329150911 46 30 0.0 3.0 0.01 0.36 0.28 95 1014.0
20200329150802 46 49 0.0 3.0 0.01 0.36 0.28 95 1014.1
20200329150707 46 359 1.0 3.0 0.01 0.36 0.28 95 1014.1
20200329150613 46 338 1.0 3.0 0.01 0.36 0.28 95 1014.1
20200329150527 46 32 0.0 2.0 0.01 0.36 0.28 95 1014.1
20200329150411 46 61 0.0 2.0 0.01 0.36 0.28 95 1014.0
20200329150318 46 61 1.0 2.0 0.01 0.36 0.28 95 1014.0
20200329150207 46 25 1.0 2.0 0.01 0.36 0.28 95 1014.1
20200329150113 46 15 1.0 2.0 0.01 0.38 0.28 95 1014.1
20200329150028 46 13 1.0 2.0 0.01 0.38 0.28 95 1014.1
20200329145905 46 6 0.0 2.0 0.02 0.38 0.28 95 1014.1
20200329145818 46 359 0.0 2.0 0.02 0.38 0.28 95 1014.1
20200329145708 46 61 0.0 2.0 0.02 0.38 0.28 95 1014.0
20200329145614 46 51 1.0 2.0 0.02 0.38 0.28 95 1014.0
20200329145521 46 75 0.0 2.0 0.02 0.38 0.28 95 1014.0
20200329145406 46 44 0.0 2.0 0.02 0.38 0.28 95 1014.0
20200329145319 46 21 0.0 2.0 0.02 0.38 0.28 95 1014.0
20200329145205 46 58 0.0 2.0 0.02 0.38 0.28 95 1014.0
20200329145115 46 58 0.0 2.0 0.02 0.38 0.28 95 1014.0
20200329145001 46 65 0.0 2.0 0.02 0.38 0.28 95 1014.0
20200329144907 46 33 0.0 2.0 0.02 0.38 0.28 95 1014.0
20200329144820 46 26 0.0 2.0 0.02 0.38 0.28 95 1014.0
20200329144708 46 61 0.0 1.0 0.02 0.38 0.28 95 1013.9
20200329144616 46 336 0.0 3.0 0.02 0.38 0.28 95 1013.9
20200329144502 46 49 0.0 3.0 0.02 0.38 0.28 95 1014.0
20200329144408 46 48 0.0 3.0 0.02 0.38 0.28 95 1014.0
20200329144314 46 49 0.0 3.0 0.02 0.38 0.28 95 1014.0
20200329144228 46 63 0.0 5.0 0.02 0.38 0.28 95 1014.0
20200329144113 46 41 0.0 5.0 0.02 0.38 0.28 95 1013.9
20200329144003 46 30 0.0 5.0 0.02 0.38 0.28 95 1013.9
20200329143909 46 13 1.0 5.0 0.02 0.38 0.28 95 1013.9
20200329143816 46 13 1.0 5.0 0.02 0.38 0.28 95 1013.9
20200329143701 46 49 1.0 5.0 0.02 0.38 0.28 95 1013.9
20200329143614 46 23 2.0 5.0 0.02 0.38 0.28 95 1013.9
20200329143504 46 69 2.0 5.0 0.02 0.38 0.28 95 1013.8
20200329143410 46 21 1.0 4.0 0.02 0.38 0.28 95 1013.9
20200329143316 46 45 1.0 4.0 0.01 0.37 0.27 95 1013.8
20200329143202 46 195 2.0 4.0 0.01 0.37 0.27 95 1013.8
20200329143116 46 330 3.0 4.0 0.01 0.37 0.27 95 1013.9
20200329143005 46 316 2.0 4.0 0.01 0.37 0.27 95 1013.8
20200329142910 46 328 1.0 6.0 0.01 0.37 0.27 95 1013.8
20200329142816 46 50 0.0 6.0 0.01 0.37 0.27 95 1013.8
20200329142702 46 25 1.0 6.0 0.01 0.37 0.27 95 1013.8
20200329142609 46 17 1.0 6.0 0.02 0.37 0.27 95 1013.8
20200329142521 46 51 1.0 6.0 0.02 0.37 0.27 95 1013.7
20200329142411 46 53 1.0 6.0 0.02 0.37 0.27 95 1013.8
20200329142317 46 26 0.0 6.0 0.02 0.37 0.27 95 1013.8
20200329142203 46 23 1.0 6.0 0.02 0.37 0.27 95 1013.8
20200329142109 46 40 1.0 6.0 0.02 0.37 0.27 95 1013.7
20200329142023 46 320 1.0 5.0 0.02 0.37 0.27 95 1013.7
20200329141912 46 86 1.0 5.0 0.02 0.37 0.27 95 1013.8
20200329141819 46 39 1.0 5.0 0.02 0.37 0.27 95 1013.7
20200329141704 46 43 1.0 5.0 0.02 0.37 0.27 95 1013.7
20200329141610 46 51 1.0 5.0 0.02 0.37 0.27 95 1013.7
20200329141524 46 44 0.0 5.0 0.02 0.37 0.27 95 1013.7
20200329141402 46 46 2.0 5.0 0.02 0.37 0.27 95 1013.7
20200329141319 46 23 2.0 5.0 0.03 0.37 0.27 95 1013.6
20200329141216 46 47 2.0 6.0 0.03 0.37 0.27 95 1013.6
20200329141102 46 34 1.0 4.0 0.03 0.37 0.27 95 1013.6
20200329141009 46 352 1.0 4.0 0.03 0.37 0.27 95 1013.6
20200329140921 46 314 1.0 4.0 0.03 0.37 0.27 95 1013.7
20200329140811 46 13 1.0 4.0 0.03 0.37 0.27 95 1013.7
20200329140717 46 1 0.0 4.0 0.03 0.37 0.27 95 1013.7
20200329140603 46 25 1.0 4.0 0.03 0.37 0.27 94 1013.7
20200329140509 46 16 2.0 4.0 0.03 0.37 0.27 95 1013.7
20200329140422 46 11 1.0 4.0 0.03 0.37 0.27 94 1013.7
20200329140308 46 58 0.0 4.0 0.03 0.37 0.27 95 1013.7
20200329140218 46 58 0.0 8.0 0.03 0.37 0.27 95 1013.7
20200329140105 46 46 2.0 8.0 0.04 0.41 0.27 94 1013.7
20200329140010 46 20 2.0 8.0 0.04 0.41 0.27 94 1013.7
20200329135924 46 335 2.0 8.0 0.03 0.40 0.26 94 1013.6
20200329135802 46 13 1.0 8.0 0.03 0.40 0.26 94 1013.7
20200329135719 46 39 1.0 8.0 0.03 0.40 0.26 94 1013.6
20200329135606 46 53 3.0 8.0 0.03 0.40 0.26 94 1013.7
20200329135511 46 26 2.0 8.0 0.03 0.40 0.26 94 1013.7
20200329135417 46 54 1.0 9.0 0.03 0.40 0.26 94 1013.6
20200329135303 46 43 0.0 4.0 0.03 0.40 0.26 94 1013.6
20200329135216 46 43 1.0 4.0 0.03 0.40 0.26 94 1013.6
20200329135106 46 13 1.0 4.0 0.03 0.40 0.26 94 1013.5
20200329135013 46 333 1.0 4.0 0.03 0.40 0.26 94 1013.6
20200329134918 46 33 1.0 4.0 0.03 0.40 0.26 94 1013.6
20200329134804 46 318 0.0 4.0 0.03 0.40 0.26 94 1013.5
20200329134717 46 43 1.0 4.0 0.04 0.40 0.26 94 1013.6
20200329134607 46 37 1.0 4.0 0.04 0.40 0.26 94 1013.6
20200329134513 46 347 1.0 4.0 0.04 0.40 0.26 94 1013.6
20200329134419 46 64 1.0 4.0 0.04 0.40 0.26 94 1013.6
20200329134305 46 334 0.0 4.0 0.04 0.40 0.26 94 1013.6
20200329134211 46 54 1.0 4.0 0.04 0.40 0.26 94 1013.6
20200329134124 46 46 1.0 4.0 0.04 0.40 0.26 94 1013.6
20200329134014 46 27 2.0 4.0 0.05 0.40 0.26 94 1013.6
20200329133919 46 39 2.0 4.0 0.05 0.40 0.26 94 1013.6
20200329133806 46 297 1.0 5.0 0.05 0.40 0.26 94 1013.7
20200329133711 46 43 1.0 7.0 0.05 0.40 0.26 94 1013.6
20200329133624 46 338 1.0 7.0 0.05 0.40 0.26 94 1013.6
20200329133513 46 334 0.0 7.0 0.05 0.40 0.26 94 1013.6
20200329133419 46 46 1.0 7.0 0.05 0.40 0.26 94 1013.6
20200329133305 46 15 1.0 7.0 0.05 0.40 0.26 94 1013.6
20200329133212 46 81 2.0 7.0 0.05 0.40 0.26 94 1013.6
20200329133124 46 43 2.0 7.0 0.05 0.40 0.26 94 1013.6
20200329133014 46 20 3.0 7.0 0.05 0.40 0.26 94 1013.7
20200329132902 46 27 3.0 7.0 0.06 0.40 0.26 94 1013.7
20200329132806 46 49 3.0 7.0 0.06 0.40 0.26 94 1013.7
20200329132712 46 354 2.0 7.0 0.06 0.40 0.26 94 1013.7
20200329132618 46 11 2.0 7.0 0.05 0.39 0.25 94 1013.6
20200329132504 46 13 3.0 7.0 0.05 0.39 0.25 94 1013.6
20200329132422 46 58 3.0 7.0 0.05 0.39 0.25 94 1013.6
20200329132307 46 335 3.0 6.0 0.05 0.39 0.25 94 1013.6
20200329132213 46 342 2.0 6.0 0.05 0.39 0.25 94 1013.6
20200329132119 46 34 1.0 6.0 0.05 0.39 0.25 94 1013.6
20200329132005 46 53 0.0 6.0 0.05 0.39 0.25 94 1013.6
20200329131922 46 51 1.0 6.0 0.05 0.39 0.25 94 1013.5
20200329131809 47 51 2.0 6.0 0.05 0.39 0.25 94 1013.5
20200329131714 47 39 2.0 6.0 0.05 0.39 0.25 94 1013.5
20200329131620 47 27 2.0 5.0 0.05 0.39 0.25 94 1013.5
20200329131506 46 51 2.0 9.0 0.05 0.39 0.25 94 1013.5
20200329131413 47 49 1.0 9.0 0.06 0.39 0.25 94 1013.5
20200329131302 47 41 1.0 9.0 0.05 0.38 0.24 94 1013.5
20200329131215 47 82 0.0 9.0 0.05 0.38 0.24 94 1013.5
20200329131101 47 83 0.0 9.0 0.05 0.38 0.24 94 1013.5
20200329131007 47 84 1.0 9.0 0.05 0.38 0.24 94 1013.6
20200329130913 47 312 2.0 9.0 0.05 0.38 0.24 94 1013.7
20200329130803 47 51 3.0 9.0 0.05 0.38 0.24 94 1013.6
20200329130716 47 37 3.0 9.0 0.05 0.38 0.24 94 1013.6
20200329130602 47 332 1.0 4.0 0.05 0.38 0.24 94 1013.5
20200329130509 47 51 1.0 4.0 0.05 0.38 0.24 94 1013.6
20200329130414 47 318 1.0 4.0 0.05 0.38 0.24 94 1013.7
20200329130304 47 65 1.0 5.0 0.05 0.38 0.24 94 1013.6
20200329130217 47 48 0.0 5.0 0.05 0.38 0.24 94 1013.6
20200329130104 47 75 1.0 5.0 0.04 0.38 0.23 94 1013.6
20200329130009 47 58 2.0 5.0 0.05 0.38 0.23 94 1013.6
20200329125915 47 46 1.0 5.0 0.05 0.38 0.23 94 1013.6
20200329125801 47 57 1.0 5.0 0.05 0.38 0.23 94 1013.5
20200329125710 47 51 2.0 5.0 0.05 0.38 0.23 94 1013.5
20200329125624 47 64 2.0 5.0 0.05 0.38 0.23 94 1013.6
20200329125510 47 21 1.0 6.0 0.05 0.38 0.23 94 1013.5
20200329125415 47 30 1.0 6.0 0.05 0.38 0.23 94 1013.5
20200329125301 47 9 1.0 9.0 0.06 0.38 0.23 94 1013.5
20200329125211 47 47 1.0 9.0 0.06 0.38 0.23 94 1013.5
20200329125124 47 77 1.0 9.0 0.06 0.38 0.23 94 1013.5
20200329125010 47 62 0.0 9.0 0.06 0.38 0.23 94 1013.6
20200329124916 47 61 1.0 9.0 0.06 0.38 0.23 94 1013.5
20200329124802 47 341 2.0 9.0 0.06 0.38 0.23 94 1013.6
20200329124708 47 61 2.0 9.0 0.05 0.37 0.22 94 1013.6
20200329124626 47 35 4.0 9.0 0.06 0.37 0.22 94 1013.5
20200329124511 47 335 3.0 9.0 0.06 0.37 0.22 94 1013.5
20200329124418 47 336 2.0 7.0 0.06 0.37 0.22 94 1013.5
20200329124303 47 58 2.0 7.0 0.06 0.37 0.22 94 1013.6
20200329124209 47 59 1.0 7.0 0.06 0.37 0.22 94 1013.5
20200329124127 47 33 1.0 5.0 0.06 0.37 0.22 94 1013.6
20200329124004 47 74 2.0 8.0 0.05 0.36 0.21 94 1013.6
20200329123918 47 43 2.0 8.0 0.05 0.36 0.21 94 1013.6
20200329123803 47 25 1.0 8.0 0.05 0.36 0.21 94 1013.6
20200329123709 47 58 2.0 8.0 0.06 0.36 0.21 94 1013.6
20200329123615 47 58 2.0 8.0 0.06 0.36 0.21 94 1013.7
20200329123505 47 60 1.0 8.0 0.06 0.36 0.21 94 1013.6
20200329123418 47 69 1.0 8.0 0.06 0.36 0.21 94 1013.5
20200329123305 47 64 3.0 8.0 0.07 0.36 0.21 94 1013.5
20200329123210 47 18 3.0 8.0 0.07 0.36 0.21 94 1013.6
20200329123116 47 72 2.0 7.0 0.07 0.36 0.21 94 1013.6
20200329123007 47 8 2.0 7.0 0.07 0.36 0.21 94 1013.6
20200329122919 47 37 2.0 7.0 0.06 0.35 0.20 94 1013.6
20200329122806 47 79 2.0 7.0 0.06 0.35 0.20 94 1013.6
20200329122711 47 57 1.0 7.0 0.07 0.35 0.20 94 1013.6
20200329122617 47 27 1.0 7.0 0.07 0.35 0.20 94 1013.6
20200329122507 47 46 2.0 7.0 0.07 0.35 0.20 94 1013.6
20200329122413 47 43 3.0 7.0 0.07 0.35 0.20 94 1013.6
20200329122326 47 67 2.0 10.0 0.07 0.35 0.20 94 1013.6
20200329122212 47 34 1.0 10.0 0.07 0.35 0.20 94 1013.6
20200329122118 47 30 2.0 10.0 0.08 0.35 0.20 94 1013.5
20200329122004 47 26 2.0 10.0 0.08 0.35 0.20 94 1013.5
20200329121914 47 350 3.0 10.0 0.08 0.35 0.20 94 1013.5
20200329121828 47 63 3.0 10.0 0.08 0.35 0.20 94 1013.5
20200329121713 47 340 3.0 10.0 0.08 0.35 0.20 94 1013.5
20200329121619 47 336 3.0 10.0 0.08 0.35 0.20 94 1013.5
20200329121505 47 1 2.0 11.0 0.07 0.34 0.19 94 1013.5
20200329121415 47 75 1.0 6.0 0.07 0.34 0.19 94 1013.5
20200329121301 47 346 1.0 6.0 0.07 0.34 0.19 94 1013.5
20200329121207 47 20 1.0 6.0 0.08 0.34 0.19 94 1013.5
20200329121120 47 47 2.0 7.0 0.08 0.34 0.19 94 1013.5
20200329121006 47 58 2.0 7.0 0.08 0.34 0.19 94 1013.5
20200329120913 47 35 1.0 7.0 0.08 0.34 0.19 94 1013.5
20200329120803 47 81 1.0 9.0 0.08 0.34 0.19 94 1013.5
20200329120708 47 82 3.0 9.0 0.08 0.34 0.19 94 1013.5
20200329120621 47 334 3.0 9.0 0.09 0.34 0.19 94 1013.5
20200329120507 47 25 1.0 9.0 0.09 0.34 0.19 94 1013.5
20200329120414 47 27 2.0 9.0 0.09 0.34 0.19 94 1013.4
20200329120304 47 77 3.0 9.0 0.09 0.34 0.19 94 1013.4
20200329120209 47 8 3.0 9.0 0.09 0.34 0.19 94 1013.4
20200329120123 47 330 3.0 9.0 0.09 0.34 0.19 94 1013.5
20200329120009 47 33 3.0 9.0 0.08 0.33 0.18 94 1013.5
20200329115914 47 360 2.0 6.0 0.08 0.33 0.18 94 1013.5
20200329115805 47 356 0.0 6.0 0.08 0.33 0.18 94 1013.5
20200329115710 46 49 0.0 6.0 0.09 0.33 0.18 94 1013.6
20200329115616 47 94 0.0 6.0 0.09 0.33 0.18 94 1013.5
20200329115502 47 49 0.0 6.0 0.09 0.33 0.18 94 1013.5
20200329115415 46 58 0.0 6.0 0.08 0.32 0.17 94 1013.5
20200329115301 47 50 1.0 6.0 0.08 0.32 0.17 94 1013.6
20200329115211 46 58 1.0 7.0 0.08 0.32 0.17 94 1013.5
20200329115105 47 53 1.0 5.0 0.08 0.32 0.17 94 1013.5
20200329115010 46 51 2.0 5.0 0.09 0.32 0.17 94 1013.5
20200329114924 46 318 2.0 5.0 0.09 0.32 0.17 94 1013.5
20200329114809 46 48 1.0 5.0 0.09 0.32 0.17 94 1013.5
20200329114719 46 21 2.0 5.0 0.09 0.32 0.17 94 1013.5
20200329114605 46 49 2.0 5.0 0.08 0.31 0.16 94 1013.5
20200329114511 46 334 1.0 5.0 0.08 0.31 0.16 94 1013.5
20200329114425 46 347 1.0 6.0 0.08 0.31 0.16 94 1013.5
20200329114303 46 330 2.0 6.0 0.08 0.31 0.16 94 1013.5
20200329114202 46 56 1.0 6.0 0.09 0.31 0.16 94 1013.5
20200329114107 46 278 0.0 6.0 0.09 0.31 0.16 94 1013.5
20200329114012 46 54 1.0 6.0 0.09 0.31 0.16 94 1013.5
20200329113918 46 34 1.0 6.0 0.09 0.31 0.16 94 1013.5
20200329113805 46 39 2.0 6.0 0.08 0.30 0.15 94 1013.5
20200329113717 46 63 2.0 6.0 0.08 0.30 0.15 94 1013.5
20200329113608 46 348 2.0 6.0 0.08 0.30 0.15 94 1013.5
20200329113513 46 41 2.0 5.0 0.08 0.30 0.15 94 1013.5
20200329113419 46 20 2.0 5.0 0.08 0.30 0.15 94 1013.5
20200329113302 46 358 1.0 4.0 0.08 0.29 0.14 94 1013.5
20200329113216 46 72 0.0 4.0 0.08 0.29 0.14 94 1013.5
20200329113106 46 43 0.0 3.0 0.08 0.29 0.14 94 1013.5
20200329113011 46 33 1.0 4.0 0.08 0.29 0.14 94 1013.5
20200329112918 46 290 1.0 4.0 0.08 0.29 0.14 94 1013.5
20200329112830 46 77 1.0 4.0 0.08 0.29 0.14 94 1013.5
20200329112707 46 330 0.0 4.0 0.07 0.28 0.13 94 1013.5
20200329112510 46 36 0.0 4.0 0.07 0.28 0.13 94 1013.5
20200329112416 46 33 0.0 4.0 0.07 0.28 0.13 94 1013.5
20200329112302 46 34 1.0 4.0 0.07 0.28 0.13 94 1013.4
20200329112205 46 153 2.0 4.0 0.07 0.28 0.13 94 1013.4
20200329112118 46 43 2.0 4.0 0.07 0.27 0.12 94 1013.5
20200329112005 46 332 0.0 4.0 0.07 0.27 0.12 94 1013.5
20200329111913 46 30 0.0 4.0 0.07 0.27 0.12 94 1013.5
20200329111817 46 30 0.0 4.0 0.07 0.27 0.12 94 1013.5
20200329111703 46 37 0.0 4.0 0.07 0.27 0.12 94 1013.5
20200329111616 46 44 1.0 4.0 0.08 0.27 0.12 94 1013.5
20200329111522 46 333 1.0 4.0 0.08 0.27 0.12 94 1013.5
20200329111416 46 332 0.0 4.0 0.08 0.27 0.12 94 1013.5
20200329111322 46 18 0.0 4.0 0.08 0.27 0.12 94 1013.5
20200329111205 46 39 0.0 4.0 0.07 0.26 0.11 94 1013.5
20200329111110 46 23 1.0 4.0 0.07 0.26 0.11 94 1013.5
20200329111024 46 11 1.0 4.0 0.07 0.26 0.11 94 1013.5
20200329110913 46 334 1.0 4.0 0.07 0.26 0.11 94 1013.5
20200329110819 46 58 0.0 3.0 0.07 0.26 0.11 94 1013.5
20200329110705 46 27 0.0 3.0 0.07 0.26 0.11 94 1013.5
20200329110611 46 26 0.0 3.0 0.06 0.25 0.10 94 1013.5
20200329110525 46 25 0.0 3.0 0.06 0.25 0.10 94 1013.5
20200329110410 46 27 0.0 3.0 0.06 0.25 0.10 94 1013.5
20200329110321 46 29 0.0 3.0 0.06 0.25 0.10 94 1013.5
20200329110206 46 340 0.0 3.0 0.07 0.25 0.10 94 1013.5
20200329110112 46 13 0.0 3.0 0.07 0.25 0.10 94 1013.5
20200329110026 46 356 0.0 3.0 0.07 0.25 0.10 94 1013.5
20200329105904 46 36 0.0 3.0 0.07 0.25 0.10 94 1013.5
20200329105822 46 39 0.0 3.0 0.07 0.25 0.10 94 1013.5
20200329105707 46 348 0.0 3.0 0.06 0.24 0.09 94 1013.5
20200329105613 46 338 0.0 3.0 0.06 0.24 0.09 94 1013.5
20200329105519 46 43 0.0 3.0 0.06 0.24 0.09 94 1013.5
20200329105406 46 33 0.0 3.0 0.06 0.24 0.09 94 1013.5
20200329105319 46 352 0.0 3.0 0.06 0.24 0.09 94 1013.5
20200329105208 46 5 0.0 1.0 0.06 0.24 0.09 94 1013.5
20200329105114 46 3 0.0 1.0 0.06 0.24 0.09 94 1013.5
20200329105020 46 23 0.0 1.0 0.05 0.23 0.08 94 1013.5
20200329104906 46 25 0.0 1.0 0.05 0.23 0.08 94 1013.5
20200329104819 46 30 0.0 1.0 0.05 0.23 0.08 94 1013.5
20200329104709 46 32 0.0 2.0 0.06 0.23 0.08 94 1013.5
20200329104615 46 32 0.0 2.0 0.06 0.23 0.08 94 1013.5
20200329104408 46 19 0.0 2.0 0.06 0.23 0.08 94 1013.5
20200329104314 46 12 0.0 2.0 0.06 0.23 0.08 94 1013.5
20200329104204 46 13 0.0 2.0 0.05 0.22 0.07 94 1013.6
20200329104117 46 26 0.0 2.0 0.05 0.22 0.07 94 1013.6
20200329104003 46 25 0.0 2.0 0.05 0.22 0.07 94 1013.6
20200329103909 46 352 0.0 2.0 0.05 0.22 0.07 94 1013.6
20200329103815 46 338 0.0 2.0 0.05 0.22 0.07 94 1013.6
20200329103701 46 29 0.0 2.0 0.05 0.22 0.07 94 1013.7
20200329103619 46 1 0.0 2.0 0.06 0.22 0.07 94 1013.7
20200329103506 46 323 0.0 2.0 0.06 0.22 0.07 94 1013.7
20200329103410 46 26 0.0 2.0 0.05 0.21 0.06 94 1013.7
20200329103317 46 53 0.0 2.0 0.05 0.21 0.06 94 1013.7
20200329103202 46 45 0.0 2.0 0.05 0.21 0.06 94 1013.7
20200329103119 47 46 0.0 2.0 0.05 0.21 0.06 94 1013.7
20200329103026 47 46 0.0 2.0 0.05 0.21 0.06 94 1013.7
20200329102911 47 47 0.0 2.0 0.05 0.21 0.06 94 1013.7
20200329102818 47 39 0.0 2.0 0.05 0.21 0.06 94 1013.7
20200329102703 46 75 0.0 3.0 0.05 0.21 0.06 94 1013.7
20200329102609 46 25 0.0 3.0 0.05 0.21 0.06 94 1013.7
20200329102527 47 25 1.0 4.0 0.05 0.21 0.06 94 1013.7
20200329102412 47 1 1.0 4.0 0.05 0.21 0.06 94 1013.7
20200329102318 47 15 1.0 4.0 0.05 0.21 0.06 94 1013.7
20200329102204 47 37 0.0 4.0 0.05 0.20 0.05 94 1013.7
20200329102110 47 35 0.0 4.0 0.05 0.20 0.05 94 1013.7
20200329102027 47 37 1.0 4.0 0.05 0.20 0.05 94 1013.7
20200329101913 47 334 1.0 4.0 0.05 0.20 0.05 94 1013.7
20200329101819 47 16 1.0 4.0 0.05 0.20 0.05 94 1013.8
20200329101705 47 285 1.0 4.0 0.05 0.20 0.05 94 1013.8
20200329101611 47 47 0.0 4.0 0.04 0.19 0.04 94 1013.8
20200329101501 47 27 0.0 4.0 0.04 0.19 0.04 94 1013.8
20200329101415 47 27 1.0 4.0 0.04 0.19 0.04 94 1013.8
20200329101320 47 352 1.0 4.0 0.04 0.19 0.04 94 1013.8
20200329101206 47 39 1.0 4.0 0.04 0.19 0.04 94 1013.8
20200329101112 47 39 1.0 4.0 0.04 0.19 0.04 94 1013.7
20200329101018 47 15 1.0 4.0 0.04 0.19 0.04 94 1013.7
20200329100908 47 58 1.0 4.0 0.04 0.19 0.04 94 1013.7
20200329100822 47 15 1.0 4.0 0.04 0.19 0.04 94 1013.7
20200329100707 47 322 1.0 4.0 0.04 0.19 0.04 94 1013.7
20200329100613 47 33 1.0 4.0 0.04 0.19 0.04 94 1013.7
20200329100520 47 39 0.0 4.0 0.04 0.19 0.04 94 1013.7
20200329100409 47 27 0.0 4.0 0.04 0.19 0.04 94 1013.7
20200329100322 47 55 0.0 6.0 0.04 0.19 0.04 94 1013.7
20200329100208 47 43 1.0 6.0 0.03 0.18 0.03 94 1013.6
20200329100115 47 47 1.0 6.0 0.03 0.19 0.03 94 1013.7
20200329100020 47 352 1.0 6.0 0.03 0.19 0.03 94 1013.7
20200329095906 47 8 1.0 6.0 0.03 0.19 0.03 94 1013.7
20200329095824 47 8 2.0 6.0 0.03 0.19 0.03 94 1013.7
20200329095702 47 315 2.0 6.0 0.03 0.19 0.03 94 1013.7
20200329095615 47 16 2.0 6.0 0.03 0.19 0.03 94 1013.8
20200329095501 47 15 2.0 6.0 0.03 0.19 0.03 94 1013.7
20200329095407 47 44 1.0 4.0 0.03 0.19 0.03 94 1013.7
20200329095317 46 328 1.0 4.0 0.03 0.19 0.03 94 1013.7
20200329095204 46 326 0.0 4.0 0.03 0.19 0.03 94 1013.7
20200329095117 46 39 0.0 4.0 0.03 0.19 0.03 94 1013.7
20200329095003 46 49 0.0 4.0 0.03 0.19 0.03 94 1013.8
20200329094908 46 25 0.0 4.0 0.03 0.19 0.03 94 1013.7
20200329094815 46 320 1.0 4.0 0.02 0.18 0.02 94 1013.8
20200329094705 46 330 1.0 4.0 0.02 0.18 0.02 94 1013.7
20200329094617 46 257 1.0 4.0 0.02 0.18 0.02 94 1013.7
20200329094524 46 321 0.0 2.0 0.02 0.18 0.02 94 1013.7
20200329094409 46 11 0.0 2.0 0.02 0.18 0.02 94 1013.7
20200329094316 46 57 0.0 2.0 0.02 0.18 0.02 94 1013.7
20200329094205 46 26 0.0 2.0 0.02 0.18 0.02 94 1013.8
20200329094111 46 349 0.0 2.0 0.02 0.18 0.02 94 1013.8
20200329094024 46 50 0.0 1.0 0.02 0.18 0.02 94 1013.8
20200329093910 46 43 0.0 1.0 0.02 0.18 0.02 94 1013.8
20200329093816 46 43 0.0 1.0 0.02 0.18 0.02 94 1013.8
20200329093706 46 43 0.0 1.0 0.02 0.18 0.02 94 1013.9
20200329093613 46 43 0.0 1.0 0.01 0.17 0.01 94 1013.9
20200329093526 46 23 0.0 1.0 0.01 0.17 0.01 94 1013.9
20200329093411 46 46 0.0 1.0 0.01 0.17 0.01 94 1013.9
20200329093317 46 41 0.0 1.0 0.01 0.17 0.01 94 1013.8
20200329093204 46 46 0.0 1.0 0.01 0.17 0.01 94 1013.9
20200329093113 46 46 0.0 1.0 0.01 0.17 0.01 94 1013.9
20200329093027 46 46 0.0 1.0 0.01 0.17 0.01 94 1013.9
20200329092913 46 46 0.0 1.0 0.01 0.17 0.01 94 1013.9
20200329092818 46 46 0.0 1.0 0.01 0.17 0.01 94 1013.9
20200329092705 46 65 0.0 1.0 0.01 0.17 0.01 94 1014.0
20200329092614 46 63 0.0 1.0 0.01 0.17 0.01 94 1013.9
20200329092520 46 39 0.0 1.0 0.01 0.17 0.01 94 1014.0
20200329092407 46 39 0.0 1.0 0.01 0.17 0.01 94 1014.0
20200329092319 46 27 0.0 1.0 0.01 0.17 0.01 94 1014.0
20200329092206 46 60 0.0 1.0 0.00 0.16 0.00 94 1014.0
20200329092111 46 30 0.0 1.0 0.00 0.16 0.00 94 1014.0
20200329092001 46 312 0.0 1.0 0.00 0.16 0.00 94 1014.0
20200329091907 46 40 0.0 1.0 0.00 0.16 0.00 94 1014.0
20200329091706 46 68 0.0 2.0 0.00 0.16 0.00 94 1014.0
20200329091612 46 68 0.0 2.0 0.00 0.16 0.00 94 1014.0
20200329091408 46 68 0.0 5.0 0.00 0.16 0.00 94 1014.0
20200329091322 46 68 0.0 5.0 0.00 0.16 0.00 94 1013.9
20200329091227 46 68 0.0 5.0 0.00 0.16 0.00 94 1013.9
20200329091113 46 65 0.0 5.0 0.00 0.16 0.00 94 1014.0
20200329091003 46 342 0.0 5.0 0.00 0.16 0.00 94 1013.9
20200329090909 46 43 0.0 5.0 0.00 0.16 0.00 94 1014.0
20200329090815 46 41 1.0 5.0 0.00 0.16 0.00 94 1014.0
20200329090701 46 314 1.0 5.0 0.00 0.16 0.00 94 1014.0
20200329090614 46 319 0.0 4.0 0.00 0.16 0.00 94 1014.0
20200329090521 46 67 0.0 4.0 0.00 0.16 0.00 94 1014.0
20200329090410 46 50 0.0 4.0 0.00 0.16 0.00 94 1014.0
20200329090316 46 50 0.0 4.0 0.00 0.16 0.00 94 1014.0
20200329090203 46 20 0.0 4.0 0.00 0.16 0.00 94 1014.0
20200329090115 46 40 0.0 4.0 0.00 0.16 0.00 94 1014.0
20200329090003 46 20 1.0 4.0 0.00 0.16 0.00 94 1014.0
20200329085911 46 333 0.0 1.0 0.00 0.16 0.00 94 1014.0
20200329085817 46 34 0.0 1.0 0.00 0.16 0.00 94 1014.1
20200329085703 46 37 0.0 0.0 0.00 0.16 0.00 94 1014.1
20200329085609 46 43 0.0 0.0 0.00 0.16 0.00 94 1014.2
20200329085523 46 43 0.0 0.0 0.00 0.16 0.00 94 1014.1
20200329085408 46 43 0.0 0.0 0.00 0.16 0.00 94 1014.1
20200329085318 46 43 0.0 0.0 0.00 0.16 0.00 94 1014.2
20200329085204 46 41 0.0 0.0 0.00 0.16 0.00 94 1014.1
20200329085110 46 41 0.0 0.0 0.00 0.16 0.00 94 1014.2
20200329085024 46 50 0.0 0.0 0.00 0.16 0.00 94 1014.2
20200329084909 46 43 0.0 0.0 0.00 0.16 0.00 94 1014.2
20200329084819 46 43 0.0 0.0 0.00 0.16 0.00 94 1014.2
20200329084705 46 43 0.0 0.0 0.00 0.16 0.00 94 1014.3
20200329084611 46 43 0.0 0.0 0.00 0.16 0.00 94 1014.3
20200329084525 46 43 0.0 0.0 0.00 0.16 0.00 94 1014.2
20200329084411 46 46 0.0 0.0 0.00 0.16 0.00 94 1014.2
20200329084319 46 45 0.0 0.0 0.00 0.16 0.00 94 1014.3
20200329084207 46 45 0.0 0.0 0.00 0.16 0.00 94 1014.2
20200329084113 46 45 0.0 0.0 0.00 0.16 0.00 94 1014.2
20200329084018 46 46 0.0 0.0 0.00 0.16 0.00 94 1014.3
20200329083904 46 44 0.0 0.0 0.00 0.16 0.00 94 1014.2
20200329083817 46 44 0.0 0.0 0.00 0.16 0.00 94 1014.2
20200329083707 46 44 0.0 0.0 0.00 0.16 0.00 94 1014.3
20200329083613 46 53 0.0 0.0 0.00 0.16 0.00 94 1014.3
20200329083519 46 54 0.0 0.0 0.00 0.16 0.00 94 1014.3
20200329083406 46 53 0.0 0.0 0.00 0.16 0.00 94 1014.3
20200329083318 46 53 0.0 0.0 0.00 0.16 0.00 94 1014.3
20200329083208 46 54 0.0 0.0 0.00 0.16 0.00 94 1014.3
20200329083115 46 51 0.0 0.0 0.00 0.16 0.00 94 1014.3
20200329083021 46 51 0.0 0.0 0.00 0.16 0.00 94 1014.3
20200329082906 46 51 0.0 2.0 0.00 0.16 0.00 94 1014.3
20200329082821 46 51 0.0 2.0 0.00 0.16 0.00 94 1014.2
20200329082726 46 51 0.0 2.0 0.00 0.16 0.00 94 1014.3
20200329082615 46 51 0.0 2.0 0.00 0.16 0.00 94 1014.3
20200329082501 46 51 0.0 2.0 0.00 0.16 0.00 94 1014.3
20200329082407 46 51 0.0 2.0 0.00 0.16 0.00 94 1014.2
20200329082313 46 51 0.0 2.0 0.00 0.16 0.00 94 1014.3
20200329082227 46 44 0.0 2.0 0.00 0.16 0.00 94 1014.3
20200329082116 46 39 0.0 2.0 0.00 0.16 0.00 94 1014.2
20200329082002 46 346 0.0 2.0 0.00 0.16 0.00 94 1014.2
20200329081908 46 49 0.0 2.0 0.00 0.16 0.00 94 1014.3
20200329081814 46 50 0.0 2.0 0.00 0.16 0.00 94 1014.3
20200329081727 46 58 0.0 2.0 0.00 0.16 0.00 94 1014.3
20200329081614 46 63 0.0 2.0 0.00 0.16 0.00 94 1014.3
20200329081504 46 62 0.0 3.0 0.00 0.16 0.00 94 1014.4
20200329081410 46 47 0.0 3.0 0.00 0.16 0.00 94 1014.4
20200329081315 46 47 0.0 3.0 0.00 0.16 0.00 94 1014.4
20200329081201 46 57 0.0 3.0 0.00 0.16 0.00 94 1014.4
20200329081107 46 8 0.0 4.0 0.00 0.16 0.00 94 1014.3
20200329081024 46 46 0.0 4.0 0.00 0.16 0.00 94 1014.3
20200329080910 46 46 1.0 4.0 0.00 0.16 0.00 94 1014.4
20200329080816 46 300 1.0 4.0 0.00 0.16 0.00 94 1014.3
20200329080608 46 23 1.0 4.0 0.00 0.16 0.00 94 1014.4
20200329080524 46 48 1.0 4.0 0.00 0.16 0.00 94 1014.3
20200329080411 46 43 0.0 4.0 0.00 0.16 0.00 94 1014.3
20200329080317 46 29 1.0 4.0 0.00 0.16 0.00 94 1014.4
20200329080204 46 296 0.0 3.0 0.00 0.16 0.00 94 1014.4
20200329080110 46 25 0.0 2.0 0.00 0.17 0.00 94 1014.3
20200329080022 46 53 0.0 3.0 0.00 0.17 0.00 94 1014.4
20200329075912 46 53 0.0 3.0 0.00 0.17 0.00 94 1014.4
20200329075818 46 47 0.0 3.0 0.00 0.17 0.00 94 1014.4
20200329075704 46 51 0.0 3.0 0.00 0.17 0.00 94 1014.4
20200329075610 46 51 0.0 3.0 0.00 0.17 0.00 94 1014.4
20200329075516 46 58 0.0 3.0 0.00 0.17 0.00 94 1014.4
20200329075406 46 39 0.0 3.0 0.00 0.17 0.00 94 1014.4
20200329075319 46 65 0.0 3.0 0.00 0.17 0.00 94 1014.4
20200329075206 46 45 0.0 3.0 0.00 0.17 0.00 94 1014.4
20200329075112 46 57 0.0 3.0 0.00 0.17 0.00 94 1014.3